Wetterdaten: Montag, 29.12.2014
Datum Zeit Temp. Aussen +5cm Feuchte Auss Luftdruck Regen Sonnenschein Regendauer Solar Windben
29.12.2014 00:00 -3,2 C -3,3 C 93 % 1033,4 hPa 0,0 l/m 0 min 0 min 0 W/m 14,6 km/h (3 Bft)
29.12.2014 00:02 -3,2 C -3,3 C 93 % 1033,4 hPa 0,0 l/m 0 min 0 min 0 W/m 10,5 km/h (2 Bft)
29.12.2014 00:05 -3,1 C -3,3 C 93 % 1033,3 hPa 0,0 l/m 0 min 0 min 0 W/m 18,8 km/h (3 Bft)
29.12.2014 00:06 -3,1 C -3,3 C 93 % 1033,3 hPa 0,0 l/m 0 min 0 min 0 W/m 18,8 km/h (3 Bft)
29.12.2014 00:08 -3,1 C -3,3 C 93 % 1033,3 hPa 0,0 l/m 0 min 0 min 0 W/m 16,7 km/h (3 Bft)
29.12.2014 00:10 -3,1 C -3,3 C 93 % 1033,3 hPa 0,0 l/m 0 min 0 min 0 W/m 14,6 km/h (3 Bft)
29.12.2014 00:12 -3,1 C -3,3 C 93 % 1033,3 hPa 0,0 l/m 0 min 0 min 0 W/m 16,7 km/h (3 Bft)
29.12.2014 00:14 -3,0 C -3,3 C 93 % 1033,3 hPa 0,0 l/m 0 min 0 min 0 W/m 18,8 km/h (3 Bft)
29.12.2014 00:16 -3,0 C -3,3 C 94 % 1033,3 hPa 0,0 l/m 0 min 0 min 0 W/m 16,7 km/h (3 Bft)
29.12.2014 00:18 -2,9 C -3,3 C 94 % 1033,4 hPa 0,0 l/m 0 min 0 min 0 W/m 14,6 km/h (3 Bft)
29.12.2014 00:20 -2,9 C -3,3 C 94 % 1033,4 hPa 0,0 l/m 0 min 0 min 0 W/m 14,6 km/h (3 Bft)
29.12.2014 00:22 -2,9 C -3,3 C 94 % 1033,3 hPa 0,0 l/m 0 min 0 min 0 W/m 18,8 km/h (3 Bft)
29.12.2014 00:24 -2,9 C -3,3 C 94 % 1033,4 hPa 0,0 l/m 0 min 0 min 0 W/m 12,6 km/h (3 Bft)
29.12.2014 00:26 -2,9 C -3,3 C 94 % 1033,3 hPa 0,0 l/m 0 min 0 min 0 W/m 16,7 km/h (3 Bft)
29.12.2014 00:28 -2,8 C -3,3 C 94 % 1033,3 hPa 0,0 l/m 0 min 0 min 0 W/m 18,8 km/h (3 Bft)
29.12.2014 00:30 -2,8 C -3,3 C 94 % 1033,3 hPa 0,0 l/m 0 min 0 min 0 W/m 12,6 km/h (3 Bft)
29.12.2014 00:32 -2,8 C -3,3 C 93 % 1033,2 hPa 0,0 l/m 0 min 0 min 0 W/m 16,7 km/h (3 Bft)
29.12.2014 00:34 -2,8 C -3,3 C 93 % 1033,1 hPa 0,0 l/m 0 min 0 min 0 W/m 14,6 km/h (3 Bft)
29.12.2014 00:36 -2,8 C -3,3 C 93 % 1033,0 hPa 0,0 l/m 0 min 0 min 0 W/m 18,8 km/h (3 Bft)
29.12.2014 00:38 -2,7 C -3,3 C 93 % 1033,1 hPa 0,0 l/m 0 min 0 min 0 W/m 16,7 km/h (3 Bft)
29.12.2014 00:40 -2,7 C -3,3 C 93 % 1032,9 hPa 0,0 l/m 0 min 0 min 0 W/m 12,6 km/h (3 Bft)
29.12.2014 00:42 -2,7 C -3,3 C 93 % 1032,9 hPa 0,0 l/m 0 min 0 min 0 W/m 20,9 km/h (4 Bft)
29.12.2014 00:44 -2,7 C -3,3 C 93 % 1032,9 hPa 0,0 l/m 0 min 0 min 0 W/m 18,8 km/h (3 Bft)
29.12.2014 00:46 -2,6 C -2,8 C 93 % 1032,8 hPa 0,0 l/m 0 min 0 min 0 W/m 16,7 km/h (3 Bft)
29.12.2014 00:48 -2,6 C -2,8 C 94 % 1032,9 hPa 0,0 l/m 0 min 0 min 0 W/m 16,7 km/h (3 Bft)
29.12.2014 00:50 -2,6 C -2,8 C 93 % 1032,8 hPa 0,0 l/m 0 min 0 min 0 W/m 16,7 km/h (3 Bft)
29.12.2014 00:52 -2,6 C -2,8 C 93 % 1032,9 hPa 0,0 l/m 0 min 0 min 0 W/m 20,9 km/h (4 Bft)
29.12.2014 00:54 -2,6 C -2,8 C 93 % 1032,8 hPa 0,0 l/m 0 min 0 min 0 W/m 20,9 km/h (4 Bft)
29.12.2014 00:56 -2,5 C -2,8 C 93 % 1032,9 hPa 0,0 l/m 0 min 0 min 0 W/m 18,8 km/h (3 Bft)
29.12.2014 00:58 -2,5 C -2,8 C 93 % 1032,8 hPa 0,0 l/m 0 min 0 min 0 W/m 18,8 km/h (3 Bft)
29.12.2014 01:00 -2,5 C -2,8 C 93 % 1032,8 hPa 0,0 l/m 0 min 0 min 0 W/m 18,8 km/h (3 Bft)
29.12.2014 01:02 -2,4 C -2,8 C 93 % 1032,8 hPa 0,0 l/m 0 min 0 min 0 W/m 25,1 km/h (4 Bft)
29.12.2014 01:04 -2,4 C -2,8 C 93 % 1032,8 hPa 0,0 l/m 0 min 0 min 0 W/m 23,0 km/h (4 Bft)
29.12.2014 01:06 -2,4 C -2,8 C 93 % 1032,7 hPa 0,0 l/m 0 min 0 min 0 W/m 20,9 km/h (4 Bft)
29.12.2014 01:08 -2,4 C -2,8 C 93 % 1032,7 hPa 0,0 l/m 0 min 0 min 0 W/m 14,6 km/h (3 Bft)
29.12.2014 01:10 -2,4 C -2,8 C 93 % 1032,6 hPa 0,0 l/m 0 min 0 min 0 W/m 20,9 km/h (4 Bft)
29.12.2014 01:12 -2,4 C -2,8 C 93 % 1032,5 hPa 0,0 l/m 0 min 0 min 0 W/m 20,9 km/h (4 Bft)
29.12.2014 01:14 -2,3 C -2,8 C 93 % 1032,5 hPa 0,0 l/m 0 min 0 min 0 W/m 18,8 km/h (3 Bft)
29.12.2014 01:16 -2,3 C -2,8 C 93 % 1032,5 hPa 0,0 l/m 0 min 0 min 0 W/m 23,0 km/h (4 Bft)
29.12.2014 01:18 -2,3 C -2,8 C 93 % 1032,4 hPa 0,0 l/m 0 min 0 min 0 W/m 16,7 km/h (3 Bft)
29.12.2014 01:20 -2,3 C -2,8 C 93 % 1032,4 hPa 0,0 l/m 0 min 0 min 0 W/m 18,8 km/h (3 Bft)
29.12.2014 01:22 -2,3 C -2,8 C 93 % 1032,4 hPa 0,0 l/m 0 min 0 min 0 W/m 25,1 km/h (4 Bft)
29.12.2014 01:24 -2,3 C -2,8 C 93 % 1032,4 hPa 0,0 l/m 0 min 0 min 0 W/m 29,3 km/h (5 Bft)
29.12.2014 01:26 -2,2 C -2,8 C 93 % 1032,3 hPa 0,0 l/m 0 min 0 min 0 W/m 27,2 km/h (4 Bft)
29.12.2014 01:28 -2,2 C -2,8 C 93 % 1032,5 hPa 0,0 l/m 0 min 0 min 0 W/m 25,1 km/h (4 Bft)
29.12.2014 01:30 -2,2 C -2,8 C 93 % 1032,5 hPa 0,0 l/m 0 min 0 min 0 W/m 31,4 km/h (5 Bft)
29.12.2014 01:32 -2,2 C -2,8 C 93 % 1032,5 hPa 0,0 l/m 0 min 0 min 0 W/m 29,3 km/h (5 Bft)
29.12.2014 01:34 -2,1 C -2,8 C 93 % 1032,5 hPa 0,0 l/m 0 min 0 min 0 W/m 29,3 km/h (5 Bft)
29.12.2014 01:36 -2,1 C -2,8 C 93 % 1032,4 hPa 0,0 l/m 0 min 0 min 0 W/m 27,2 km/h (4 Bft)
29.12.2014 01:38 -2,1 C -2,8 C 93 % 1032,3 hPa 0,0 l/m 0 min 0 min 0 W/m 27,2 km/h (4 Bft)
29.12.2014 01:40 -2,1 C -2,8 C 93 % 1032,3 hPa 0,0 l/m 0 min 0 min 0 W/m 25,1 km/h (4 Bft)
29.12.2014 01:42 -2,1 C -2,8 C 93 % 1032,2 hPa 0,0 l/m 0 min 0 min 0 W/m 25,1 km/h (4 Bft)
29.12.2014 01:44 -2,1 C -2,8 C 92 % 1032,1 hPa 0,0 l/m 0 min 0 min 0 W/m 20,9 km/h (4 Bft)
29.12.2014 01:46 -2,1 C -2,8 C 92 % 1032,2 hPa 0,0 l/m 0 min 0 min 0 W/m 27,2 km/h (4 Bft)
29.12.2014 01:48 -2,0 C -2,8 C 92 % 1032,3 hPa 0,0 l/m 0 min 0 min 0 W/m 25,1 km/h (4 Bft)
29.12.2014 01:50 -2,0 C -2,8 C 92 % 1032,3 hPa 0,0 l/m 0 min 0 min 0 W/m 20,9 km/h (4 Bft)
29.12.2014 01:52 -2,0 C -2,8 C 92 % 1032,3 hPa 0,0 l/m 0 min 0 min 0 W/m 20,9 km/h (4 Bft)
29.12.2014 01:54 -2,0 C -2,8 C 92 % 1032,2 hPa 0,0 l/m 0 min 0 min 0 W/m 25,1 km/h (4 Bft)
29.12.2014 01:56 -1,9 C -2,8 C 92 % 1032,2 hPa 0,0 l/m 0 min 0 min 0 W/m 31,4 km/h (5 Bft)
29.12.2014 01:58 -1,9 C -2,8 C 92 % 1032,2 hPa 0,0 l/m 0 min 0 min 0 W/m 31,4 km/h (5 Bft)
29.12.2014 02:00 -1,9 C -2,8 C 92 % 1032,2 hPa 0,0 l/m 0 min 0 min 0 W/m 33,5 km/h (5 Bft)
29.12.2014 02:02 -1,9 C -2,8 C 92 % 1032,2 hPa 0,0 l/m 0 min 0 min 0 W/m 29,3 km/h (5 Bft)
29.12.2014 02:04 -1,9 C -2,8 C 92 % 1032,2 hPa 0,0 l/m 0 min 0 min 0 W/m 33,5 km/h (5 Bft)
29.12.2014 02:06 -1,9 C -2,8 C 92 % 1032,2 hPa 0,0 l/m 0 min 0 min 0 W/m 35,6 km/h (5 Bft)
29.12.2014 02:08 -1,9 C -2,8 C 92 % 1032,1 hPa 0,0 l/m 0 min 0 min 0 W/m 25,1 km/h (4 Bft)
29.12.2014 02:10 -1,9 C -2,8 C 92 % 1032,1 hPa 0,0 l/m 0 min 0 min 0 W/m 31,4 km/h (5 Bft)
29.12.2014 02:12 -1,9 C -2,8 C 92 % 1032,1 hPa 0,0 l/m 0 min 0 min 0 W/m 20,9 km/h (4 Bft)
29.12.2014 02:14 -1,9 C -2,8 C 92 % 1032,1 hPa 0,0 l/m 0 min 0 min 0 W/m 20,9 km/h (4 Bft)
29.12.2014 02:16 -1,9 C -2,8 C 92 % 1032,1 hPa 0,0 l/m 0 min 0 min 0 W/m 20,9 km/h (4 Bft)
29.12.2014 02:18 -1,9 C -2,8 C 92 % 1032,0 hPa 0,0 l/m 0 min 0 min 0 W/m 27,2 km/h (4 Bft)
29.12.2014 02:20 -1,9 C -2,8 C 92 % 1032,1 hPa 0,0 l/m 0 min 0 min 0 W/m 29,3 km/h (5 Bft)
29.12.2014 02:22 -1,8 C -2,8 C 91 % 1032,1 hPa 0,0 l/m 0 min 0 min 0 W/m 25,1 km/h (4 Bft)
29.12.2014 02:24 -1,8 C -2,8 C 91 % 1032,0 hPa 0,0 l/m 0 min 0 min 0 W/m 25,1 km/h (4 Bft)
29.12.2014 02:26 -1,8 C -2,8 C 91 % 1032,0 hPa 0,0 l/m 0 min 0 min 0 W/m 23,0 km/h (4 Bft)
29.12.2014 02:28 -1,8 C -2,8 C 91 % 1032,0 hPa 0,0 l/m 0 min 0 min 0 W/m 29,3 km/h (5 Bft)
29.12.2014 02:30 -1,8 C -2,8 C 91 % 1032,0 hPa 0,0 l/m 0 min 0 min 0 W/m 25,1 km/h (4 Bft)
29.12.2014 02:32 -1,8 C -2,8 C 91 % 1031,9 hPa 0,0 l/m 0 min 2 min 0 W/m 23,0 km/h (4 Bft)
29.12.2014 02:34 -1,8 C -2,8 C 91 % 1032,0 hPa 0,0 l/m 0 min 2 min 0 W/m 25,1 km/h (4 Bft)
29.12.2014 02:36 -1,8 C -2,8 C 91 % 1032,0 hPa 0,0 l/m 0 min 2 min 0 W/m 27,2 km/h (4 Bft)
29.12.2014 02:38 -1,8 C -2,8 C 91 % 1031,9 hPa 0,0 l/m 0 min 0 min 0 W/m 20,9 km/h (4 Bft)
29.12.2014 02:40 -1,8 C -2,8 C 91 % 1031,9 hPa 0,0 l/m 0 min 0 min 0 W/m 27,2 km/h (4 Bft)
29.12.2014 02:42 -1,8 C -2,8 C 91 % 1031,9 hPa 0,0 l/m 0 min 2 min 0 W/m 23,0 km/h (4 Bft)
29.12.2014 02:44 -1,8 C -2,8 C 91 % 1031,9 hPa 0,0 l/m 0 min 2 min 0 W/m 23,0 km/h (4 Bft)
29.12.2014 02:46 -1,8 C -2,8 C 91 % 1031,9 hPa 0,0 l/m 0 min 2 min 0 W/m 31,4 km/h (5 Bft)
29.12.2014 02:48 -1,8 C -2,8 C 91 % 1031,9 hPa 0,0 l/m 0 min 2 min 0 W/m 25,1 km/h (4 Bft)
29.12.2014 02:50 -1,8 C -2,8 C 91 % 1031,9 hPa 0,0 l/m 0 min 0 min 0 W/m 23,0 km/h (4 Bft)
29.12.2014 02:52 -1,8 C -2,8 C 91 % 1031,9 hPa 0,0 l/m 0 min 2 min 0 W/m 27,2 km/h (4 Bft)
29.12.2014 02:54 -1,8 C -2,8 C 91 % 1031,9 hPa 0,0 l/m 0 min 2 min 0 W/m 29,3 km/h (5 Bft)
29.12.2014 02:56 -1,8 C -2,8 C 91 % 1031,8 hPa 0,0 l/m 0 min 2 min 0 W/m 29,3 km/h (5 Bft)
29.12.2014 02:58 -1,8 C -2,8 C 91 % 1031,9 hPa 0,0 l/m 0 min 2 min 0 W/m 25,1 km/h (4 Bft)
29.12.2014 03:00 -1,8 C -2,8 C 91 % 1031,9 hPa 0,0 l/m 0 min 2 min 0 W/m 27,2 km/h (4 Bft)
29.12.2014 03:02 -1,8 C -2,8 C 91 % 1031,7 hPa 0,0 l/m 0 min 2 min 0 W/m 33,5 km/h (5 Bft)
29.12.2014 03:04 -1,8 C -2,8 C 91 % 1031,7 hPa 0,0 l/m 0 min 2 min 0 W/m 35,6 km/h (5 Bft)
29.12.2014 03:06 -1,8 C -2,8 C 91 % 1031,5 hPa 0,0 l/m 0 min 2 min 0 W/m 23,0 km/h (4 Bft)
29.12.2014 03:08 -1,8 C -2,8 C 91 % 1031,6 hPa 0,0 l/m 0 min 2 min 0 W/m 31,4 km/h (5 Bft)
29.12.2014 03:10 -1,8 C -2,8 C 92 % 1031,6 hPa 0,0 l/m 0 min 2 min 0 W/m 35,6 km/h (5 Bft)
29.12.2014 03:12 -1,8 C -2,8 C 92 % 1031,6 hPa 0,0 l/m 0 min 2 min 0 W/m 33,5 km/h (5 Bft)
29.12.2014 03:14 -1,8 C -2,8 C 92 % 1031,5 hPa 0,0 l/m 0 min 2 min 0 W/m 29,3 km/h (5 Bft)
29.12.2014 03:16 -1,8 C -2,8 C 92 % 1031,5 hPa 0,0 l/m 0 min 2 min 0 W/m 25,1 km/h (4 Bft)
29.12.2014 03:18 -1,8 C -2,8 C 92 % 1031,4 hPa 0,0 l/m 0 min 2 min 0 W/m 27,2 km/h (4 Bft)
29.12.2014 03:20 -1,8 C -2,8 C 92 % 1031,4 hPa 0,0 l/m 0 min 2 min 0 W/m 27,2 km/h (4 Bft)
29.12.2014 03:22 -1,8 C -2,8 C 92 % 1031,3 hPa 0,0 l/m 0 min 2 min 0 W/m 33,5 km/h (5 Bft)
29.12.2014 03:24 -1,8 C -2,8 C 92 % 1031,3 hPa 0,0 l/m 0 min 2 min 0 W/m 37,7 km/h (5 Bft)
29.12.2014 03:26 -1,8 C -2,8 C 92 % 1031,4 hPa 0,0 l/m 0 min 2 min 0 W/m 33,5 km/h (5 Bft)
29.12.2014 03:28 -1,9 C -2,8 C 92 % 1031,4 hPa 0,0 l/m 0 min 2 min 0 W/m 31,4 km/h (5 Bft)
29.12.2014 03:30 -1,9 C -2,8 C 92 % 1031,3 hPa 0,0 l/m 0 min 2 min 0 W/m 33,5 km/h (5 Bft)
29.12.2014 03:32 -1,9 C -2,8 C 92 % 1031,4 hPa 0,0 l/m 0 min 2 min 0 W/m 37,7 km/h (5 Bft)
29.12.2014 03:34 -1,9 C -2,8 C 92 % 1031,3 hPa 0,0 l/m 0 min 2 min 0 W/m 33,5 km/h (5 Bft)
29.12.2014 03:36 -1,9 C -2,8 C 92 % 1031,3 hPa 0,0 l/m 0 min 2 min 0 W/m 39,7 km/h (6 Bft)
29.12.2014 03:38 -1,9 C -2,8 C 93 % 1031,2 hPa 0,0 l/m 0 min 2 min 0 W/m 35,6 km/h (5 Bft)
29.12.2014 03:40 -1,9 C -2,8 C 93 % 1031,2 hPa 0,0 l/m 0 min 2 min 0 W/m 39,7 km/h (6 Bft)
29.12.2014 03:42 -1,9 C -2,8 C 93 % 1031,2 hPa 0,0 l/m 0 min 2 min 0 W/m 31,4 km/h (5 Bft)
29.12.2014 03:44 -2,0 C -2,8 C 93 % 1031,1 hPa 0,0 l/m 0 min 2 min 0 W/m 39,7 km/h (6 Bft)
29.12.2014 03:46 -2,0 C -2,8 C 93 % 1031,1 hPa 0,0 l/m 0 min 2 min 0 W/m 31,4 km/h (5 Bft)
29.12.2014 03:48 -1,9 C -2,8 C 93 % 1031,2 hPa 0,0 l/m 0 min 2 min 0 W/m 33,5 km/h (5 Bft)
29.12.2014 03:50 -2,0 C -2,8 C 93 % 1031,1 hPa 0,0 l/m 0 min 2 min 0 W/m 27,2 km/h (4 Bft)
29.12.2014 03:52 -1,9 C -2,8 C 93 % 1031,2 hPa 0,0 l/m 0 min 2 min 0 W/m 35,6 km/h (5 Bft)
29.12.2014 03:54 -1,9 C -2,8 C 93 % 1031,2 hPa 0,0 l/m 0 min 2 min 0 W/m 29,3 km/h (5 Bft)
29.12.2014 03:56 -1,9 C -2,8 C 93 % 1031,1 hPa 0,0 l/m 0 min 2 min 0 W/m 35,6 km/h (5 Bft)
29.12.2014 03:58 -1,9 C -2,8 C 93 % 1031,1 hPa 0,0 l/m 0 min 2 min 0 W/m 29,3 km/h (5 Bft)
29.12.2014 04:00 -1,9 C -2,8 C 93 % 1031,1 hPa 0,0 l/m 0 min 2 min 0 W/m 33,5 km/h (5 Bft)
29.12.2014 04:02 -1,9 C -2,8 C 93 % 1031,2 hPa 0,0 l/m 0 min 2 min 0 W/m 29,3 km/h (5 Bft)
29.12.2014 04:04 -1,9 C -2,8 C 94 % 1031,0 hPa 0,0 l/m 0 min 2 min 0 W/m 18,8 km/h (3 Bft)
29.12.2014 04:06 -1,9 C -2,8 C 94 % 1031,1 hPa 0,0 l/m 0 min 2 min 0 W/m 29,3 km/h (5 Bft)
29.12.2014 04:08 -1,8 C -2,8 C 94 % 1031,0 hPa 0,0 l/m 0 min 2 min 0 W/m 27,2 km/h (4 Bft)
29.12.2014 04:10 -1,8 C -2,8 C 94 % 1030,9 hPa 0,0 l/m 0 min 2 min 0 W/m 35,6 km/h (5 Bft)
29.12.2014 04:12 -1,8 C -2,8 C 94 % 1030,9 hPa 0,0 l/m 0 min 2 min 0 W/m 29,3 km/h (5 Bft)
29.12.2014 04:14 -1,8 C -2,8 C 94 % 1030,9 hPa 0,0 l/m 0 min 2 min 0 W/m 29,3 km/h (5 Bft)
29.12.2014 04:16 -1,8 C -2,8 C 94 % 1030,9 hPa 0,0 l/m 0 min 2 min 0 W/m 27,2 km/h (4 Bft)
29.12.2014 04:18 -1,8 C -2,8 C 94 % 1031,0 hPa 0,0 l/m 0 min 2 min 0 W/m 25,1 km/h (4 Bft)
29.12.2014 04:23 -1,7 C -2,2 C 94 % 1030,8 hPa 0,0 l/m 0 min 2 min 0 W/m 31,4 km/h (5 Bft)
29.12.2014 04:24 -1,7 C -2,2 C 94 % 1030,8 hPa 0,0 l/m 0 min 1 min 0 W/m 18,8 km/h (3 Bft)
29.12.2014 04:26 -1,6 C -2,2 C 94 % 1030,8 hPa 0,0 l/m 0 min 2 min 0 W/m 33,5 km/h (5 Bft)
29.12.2014 04:28 -1,6 C -2,2 C 94 % 1030,7 hPa 0,0 l/m 0 min 2 min 0 W/m 37,7 km/h (5 Bft)
29.12.2014 04:30 -1,6 C -2,2 C 94 % 1030,8 hPa 0,0 l/m 0 min 2 min 0 W/m 25,1 km/h (4 Bft)
29.12.2014 04:32 -1,6 C -2,2 C 94 % 1030,7 hPa 0,0 l/m 0 min 2 min 0 W/m 33,5 km/h (5 Bft)
29.12.2014 04:34 -1,5 C -2,2 C 94 % 1030,7 hPa 0,0 l/m 0 min 2 min 0 W/m 37,7 km/h (5 Bft)
29.12.2014 04:36 -1,4 C -2,2 C 94 % 1030,7 hPa 0,0 l/m 0 min 2 min 0 W/m 25,1 km/h (4 Bft)
29.12.2014 04:38 -1,4 C -2,2 C 94 % 1030,6 hPa 0,0 l/m 0 min 2 min 0 W/m 29,3 km/h (5 Bft)
29.12.2014 04:40 -1,4 C -2,2 C 94 % 1030,6 hPa 0,0 l/m 0 min 2 min 0 W/m 33,5 km/h (5 Bft)
29.12.2014 04:42 -1,4 C -2,2 C 94 % 1030,5 hPa 0,0 l/m 0 min 2 min 0 W/m 33,5 km/h (5 Bft)
29.12.2014 04:44 -1,3 C -2,2 C 94 % 1030,6 hPa 0,0 l/m 0 min 2 min 0 W/m 29,3 km/h (5 Bft)
29.12.2014 04:46 -1,3 C -2,2 C 94 % 1030,3 hPa 0,0 l/m 0 min 2 min 0 W/m 29,3 km/h (5 Bft)
29.12.2014 04:48 -1,3 C -2,2 C 94 % 1030,5 hPa 0,0 l/m 0 min 2 min 0 W/m 29,3 km/h (5 Bft)
29.12.2014 04:50 -1,3 C -2,2 C 94 % 1030,5 hPa 0,0 l/m 0 min 2 min 0 W/m 35,6 km/h (5 Bft)
29.12.2014 04:52 -1,3 C -2,2 C 94 % 1030,4 hPa 0,0 l/m 0 min 2 min 0 W/m 29,3 km/h (5 Bft)
29.12.2014 04:54 -1,3 C -2,2 C 94 % 1030,4 hPa 0,0 l/m 0 min 2 min 0 W/m 33,5 km/h (5 Bft)
29.12.2014 04:56 -1,3 C -2,2 C 94 % 1030,3 hPa 0,0 l/m 0 min 2 min 0 W/m 31,4 km/h (5 Bft)
29.12.2014 04:58 -1,3 C -2,2 C 94 % 1030,1 hPa 0,0 l/m 0 min 2 min 0 W/m 33,5 km/h (5 Bft)
29.12.2014 05:00 -1,3 C -2,2 C 94 % 1030,1 hPa 0,0 l/m 0 min 2 min 0 W/m 29,3 km/h (5 Bft)
29.12.2014 05:02 -1,3 C -2,2 C 95 % 1030,2 hPa 0,0 l/m 0 min 2 min 0 W/m 31,4 km/h (5 Bft)
29.12.2014 05:04 -1,2 C -2,2 C 95 % 1030,2 hPa 0,0 l/m 0 min 2 min 0 W/m 25,1 km/h (4 Bft)
29.12.2014 05:06 -1,2 C -2,2 C 95 % 1030,2 hPa 0,0 l/m 0 min 2 min 0 W/m 29,3 km/h (5 Bft)
29.12.2014 05:08 -1,2 C -2,2 C 95 % 1030,2 hPa 0,0 l/m 0 min 2 min 0 W/m 35,6 km/h (5 Bft)
29.12.2014 05:10 -1,1 C -2,2 C 95 % 1030,2 hPa 0,0 l/m 0 min 2 min 0 W/m 35,6 km/h (5 Bft)
29.12.2014 05:12 -1,1 C -2,2 C 95 % 1030,2 hPa 0,0 l/m 0 min 2 min 0 W/m 29,3 km/h (5 Bft)
29.12.2014 05:14 -1,1 C -1,7 C 95 % 1030,2 hPa 0,0 l/m 0 min 2 min 0 W/m 31,4 km/h (5 Bft)
29.12.2014 05:16 -1,1 C -1,7 C 95 % 1030,1 hPa 0,0 l/m 0 min 2 min 0 W/m 29,3 km/h (5 Bft)
29.12.2014 05:18 -1,1 C -1,7 C 95 % 1030,2 hPa 0,0 l/m 0 min 2 min 0 W/m 35,6 km/h (5 Bft)
29.12.2014 05:20 -1,0 C -1,7 C 95 % 1030,1 hPa 0,0 l/m 0 min 2 min 0 W/m 20,9 km/h (4 Bft)
29.12.2014 05:22 -1,0 C -1,7 C 95 % 1030,1 hPa 0,0 l/m 0 min 2 min 0 W/m 25,1 km/h (4 Bft)
29.12.2014 05:24 -0,9 C -1,7 C 95 % 1030,1 hPa 0,0 l/m 0 min 2 min 0 W/m 25,1 km/h (4 Bft)
29.12.2014 05:26 -0,9 C -1,7 C 95 % 1030,1 hPa 0,0 l/m 0 min 2 min 0 W/m 23,0 km/h (4 Bft)
29.12.2014 05:28 -0,9 C -1,7 C 95 % 1030,0 hPa 0,0 l/m 0 min 2 min 0 W/m 31,4 km/h (5 Bft)
29.12.2014 05:30 -0,8 C -1,7 C 95 % 1030,0 hPa 0,0 l/m 0 min 2 min 0 W/m 31,4 km/h (5 Bft)
29.12.2014 05:32 -0,8 C -1,7 C 95 % 1029,9 hPa 0,0 l/m 0 min 2 min 0 W/m 18,8 km/h (3 Bft)
29.12.2014 05:34 -0,8 C -1,7 C 95 % 1029,9 hPa 0,0 l/m 0 min 2 min 0 W/m 25,1 km/h (4 Bft)
29.12.2014 05:36 -0,7 C -1,7 C 95 % 1030,0 hPa 0,0 l/m 0 min 2 min 0 W/m 20,9 km/h (4 Bft)
29.12.2014 05:38 -0,7 C -1,7 C 95 % 1030,0 hPa 0,0 l/m 0 min 2 min 0 W/m 16,7 km/h (3 Bft)
29.12.2014 05:40 -0,7 C -1,7 C 95 % 1029,9 hPa 0,0 l/m 0 min 2 min 0 W/m 29,3 km/h (5 Bft)
29.12.2014 05:42 -0,6 C -1,7 C 95 % 1030,0 hPa 0,0 l/m 0 min 2 min 0 W/m 29,3 km/h (5 Bft)
29.12.2014 05:44 -0,6 C -1,7 C 95 % 1029,9 hPa 0,0 l/m 0 min 2 min 0 W/m 31,4 km/h (5 Bft)
29.12.2014 05:46 -0,6 C -1,7 C 95 % 1029,9 hPa 0,0 l/m 0 min 2 min 0 W/m 29,3 km/h (5 Bft)
29.12.2014 05:48 -0,5 C -1,7 C 95 % 1029,9 hPa 0,0 l/m 0 min 2 min 0 W/m 29,3 km/h (5 Bft)
29.12.2014 05:50 -0,4 C -1,7 C 95 % 1029,9 hPa 0,0 l/m 0 min 2 min 0 W/m 23,0 km/h (4 Bft)
29.12.2014 05:52 -0,4 C -1,1 C 95 % 1029,9 hPa 0,0 l/m 0 min 2 min 0 W/m 27,2 km/h (4 Bft)
29.12.2014 05:54 -0,4 C -1,1 C 95 % 1029,8 hPa 0,0 l/m 0 min 2 min 0 W/m 20,9 km/h (4 Bft)
29.12.2014 05:56 -0,3 C -1,1 C 95 % 1029,9 hPa 0,0 l/m 0 min 2 min 0 W/m 27,2 km/h (4 Bft)
29.12.2014 05:58 -0,3 C -1,1 C 95 % 1029,8 hPa 0,0 l/m 0 min 2 min 0 W/m 27,2 km/h (4 Bft)
29.12.2014 06:00 -0,3 C -1,1 C 95 % 1029,8 hPa 0,0 l/m 0 min 2 min 0 W/m 27,2 km/h (4 Bft)
29.12.2014 06:02 -0,3 C -1,1 C 95 % 1029,8 hPa 0,0 l/m 0 min 2 min 0 W/m 18,8 km/h (3 Bft)
29.12.2014 06:05 -0,2 C -1,1 C 95 % 1029,7 hPa 0,0 l/m 0 min 2 min 0 W/m 25,1 km/h (4 Bft)
29.12.2014 06:08 -0,2 C -1,1 C 95 % 1029,6 hPa 0,0 l/m 0 min 2 min 0 W/m 29,3 km/h (5 Bft)
29.12.2014 06:10 -0,2 C -1,1 C 95 % 1029,6 hPa 0,0 l/m 0 min 2 min 0 W/m 23,0 km/h (4 Bft)
29.12.2014 06:12 -0,2 C -1,1 C 95 % 1029,8 hPa 0,0 l/m 0 min 2 min 0 W/m 18,8 km/h (3 Bft)
29.12.2014 06:14 -0,1 C -1,1 C 95 % 1029,7 hPa 0,0 l/m 0 min 2 min 0 W/m 25,1 km/h (4 Bft)
29.12.2014 06:16 -0,1 C -1,1 C 95 % 1029,7 hPa 0,0 l/m 0 min 2 min 0 W/m 27,2 km/h (4 Bft)
29.12.2014 06:18 -0,1 C -1,1 C 95 % 1029,7 hPa 0,0 l/m 0 min 2 min 0 W/m 25,1 km/h (4 Bft)
29.12.2014 06:20 -0,1 C -1,1 C 95 % 1029,8 hPa 0,0 l/m 0 min 2 min 0 W/m 20,9 km/h (4 Bft)
29.12.2014 06:22 -0,1 C -1,1 C 95 % 1029,8 hPa 0,0 l/m 0 min 2 min 0 W/m 18,8 km/h (3 Bft)
29.12.2014 06:24 -0,1 C -1,1 C 95 % 1029,7 hPa 0,0 l/m 0 min 2 min 0 W/m 25,1 km/h (4 Bft)
29.12.2014 06:26 -0,1 C -1,1 C 95 % 1029,7 hPa 0,0 l/m 0 min 2 min 0 W/m 20,9 km/h (4 Bft)
29.12.2014 06:28 -0,1 C -1,1 C 95 % 1029,7 hPa 0,0 l/m 0 min 2 min 0 W/m 25,1 km/h (4 Bft)
29.12.2014 06:30 0,0 C -1,1 C 95 % 1029,8 hPa 0,0 l/m 0 min 2 min 0 W/m 16,7 km/h (3 Bft)
29.12.2014 06:32 0,0 C -1,1 C 95 % 1029,8 hPa 0,0 l/m 0 min 2 min 0 W/m 31,4 km/h (5 Bft)
29.12.2014 06:34 0,0 C -1,1 C 95 % 1029,7 hPa 0,0 l/m 0 min 2 min 0 W/m 12,6 km/h (3 Bft)
29.12.2014 06:36 0,0 C -1,1 C 95 % 1029,7 hPa 0,0 l/m 0 min 2 min 0 W/m 23,0 km/h (4 Bft)
29.12.2014 06:38 0,0 C -1,1 C 95 % 1029,7 hPa 0,0 l/m 0 min 2 min 0 W/m 23,0 km/h (4 Bft)
29.12.2014 06:40 0,1 C -1,1 C 95 % 1029,7 hPa 0,0 l/m 0 min 2 min 0 W/m 27,2 km/h (4 Bft)
29.12.2014 06:42 0,1 C -1,1 C 95 % 1029,7 hPa 0,0 l/m 0 min 2 min 0 W/m 27,2 km/h (4 Bft)
29.12.2014 06:44 0,1 C -1,1 C 96 % 1029,7 hPa 0,0 l/m 0 min 2 min 0 W/m 27,2 km/h (4 Bft)
29.12.2014 06:46 0,1 C -1,1 C 96 % 1029,8 hPa 0,0 l/m 0 min 2 min 0 W/m 25,1 km/h (4 Bft)
29.12.2014 06:48 0,1 C -1,1 C 96 % 1029,9 hPa 0,0 l/m 0 min 2 min 0 W/m 25,1 km/h (4 Bft)
29.12.2014 06:50 0,1 C -1,1 C 96 % 1029,8 hPa 0,0 l/m 0 min 2 min 0 W/m 20,9 km/h (4 Bft)
29.12.2014 06:52 0,2 C -1,1 C 96 % 1029,8 hPa 0,0 l/m 0 min 2 min 0 W/m 23,0 km/h (4 Bft)
29.12.2014 06:54 0,2 C -1,1 C 96 % 1029,8 hPa 0,0 l/m 0 min 2 min 0 W/m 20,9 km/h (4 Bft)
29.12.2014 06:56 0,2 C -1,1 C 96 % 1029,8 hPa 0,0 l/m 0 min 2 min 0 W/m 23,0 km/h (4 Bft)
29.12.2014 06:58 0,2 C -1,1 C 96 % 1029,8 hPa 0,0 l/m 0 min 2 min 0 W/m 23,0 km/h (4 Bft)
29.12.2014 07:00 0,2 C -1,1 C 96 % 1029,7 hPa 0,0 l/m 0 min 2 min 0 W/m 16,7 km/h (3 Bft)
29.12.2014 07:02 0,2 C -1,1 C 96 % 1029,9 hPa 0,0 l/m 0 min 2 min 0 W/m 16,7 km/h (3 Bft)
29.12.2014 07:04 0,2 C -1,1 C 96 % 1029,9 hPa 0,0 l/m 0 min 2 min 0 W/m 20,9 km/h (4 Bft)
29.12.2014 07:06 0,2 C -1,1 C 96 % 1029,8 hPa 0,0 l/m 0 min 2 min 0 W/m 23,0 km/h (4 Bft)
29.12.2014 07:08 0,2 C -1,1 C 96 % 1029,8 hPa 0,0 l/m 0 min 2 min 0 W/m 20,9 km/h (4 Bft)
29.12.2014 07:10 0,3 C -1,1 C 96 % 1029,8 hPa 0,0 l/m 0 min 2 min 0 W/m 20,9 km/h (4 Bft)
29.12.2014 07:12 0,3 C -1,1 C 96 % 1029,8 hPa 0,0 l/m 0 min 2 min 0 W/m 16,7 km/h (3 Bft)
29.12.2014 07:14 0,3 C -1,1 C 96 % 1029,9 hPa 0,0 l/m 0 min 2 min 0 W/m 18,8 km/h (3 Bft)
29.12.2014 07:16 0,3 C -1,1 C 96 % 1029,9 hPa 0,0 l/m 0 min 2 min 0 W/m 16,7 km/h (3 Bft)
29.12.2014 07:18 0,3 C -1,1 C 96 % 1030,0 hPa 0,0 l/m 0 min 2 min 0 W/m 18,8 km/h (3 Bft)
29.12.2014 07:20 0,3 C -1,1 C 96 % 1029,9 hPa 0,0 l/m 0 min 2 min 0 W/m 25,1 km/h (4 Bft)
29.12.2014 07:22 0,3 C -1,1 C 96 % 1029,9 hPa 0,0 l/m 0 min 2 min 0 W/m 25,1 km/h (4 Bft)
29.12.2014 07:24 0,4 C -1,1 C 96 % 1029,9 hPa 0,0 l/m 0 min 2 min 0 W/m 18,8 km/h (3 Bft)
29.12.2014 07:26 0,4 C -1,1 C 96 % 1030,0 hPa 0,0 l/m 0 min 2 min 0 W/m 20,9 km/h (4 Bft)
29.12.2014 07:28 0,4 C -1,1 C 96 % 1029,9 hPa 0,0 l/m 0 min 2 min 0 W/m 12,6 km/h (3 Bft)
29.12.2014 07:30 0,4 C -1,1 C 96 % 1030,0 hPa 0,0 l/m 0 min 2 min 0 W/m 16,7 km/h (3 Bft)
29.12.2014 07:32 0,4 C -1,1 C 96 % 1029,9 hPa 0,0 l/m 0 min 2 min 0 W/m 18,8 km/h (3 Bft)
29.12.2014 07:34 0,4 C -1,1 C 96 % 1029,9 hPa 0,0 l/m 0 min 2 min 0 W/m 14,6 km/h (3 Bft)
29.12.2014 07:36 0,4 C -1,1 C 96 % 1030,0 hPa 0,0 l/m 0 min 2 min 0 W/m 14,6 km/h (3 Bft)
29.12.2014 07:38 0,4 C -1,1 C 96 % 1030,0 hPa 0,0 l/m 0 min 2 min 0 W/m 16,7 km/h (3 Bft)
29.12.2014 07:40 0,4 C -1,1 C 96 % 1029,9 hPa 0,0 l/m 0 min 2 min 0 W/m 18,8 km/h (3 Bft)
29.12.2014 07:42 0,4 C -1,1 C 96 % 1030,0 hPa 0,0 l/m 0 min 2 min 0 W/m 16,7 km/h (3 Bft)
29.12.2014 07:44 0,4 C -1,1 C 96 % 1030,0 hPa 0,0 l/m 0 min 2 min 0 W/m 20,9 km/h (4 Bft)
29.12.2014 07:46 0,4 C -1,1 C 96 % 1030,0 hPa 0,0 l/m 0 min 2 min 0 W/m 25,1 km/h (4 Bft)
29.12.2014 07:48 0,4 C -1,1 C 96 % 1030,0 hPa 0,0 l/m 0 min 2 min 0 W/m 20,9 km/h (4 Bft)
29.12.2014 07:50 0,4 C -1,1 C 96 % 1030,0 hPa 0,0 l/m 0 min 2 min 0 W/m 25,1 km/h (4 Bft)
29.12.2014 07:52 0,4 C -1,1 C 96 % 1030,0 hPa 0,0 l/m 0 min 2 min 0 W/m 16,7 km/h (3 Bft)
29.12.2014 07:54 0,4 C -1,1 C 96 % 1030,0 hPa 0,0 l/m 0 min 2 min 0 W/m 16,7 km/h (3 Bft)
29.12.2014 07:56 0,4 C -1,1 C 96 % 1030,0 hPa 0,0 l/m 0 min 2 min 0 W/m 14,6 km/h (3 Bft)
29.12.2014 07:58 0,4 C -1,1 C 96 % 1030,0 hPa 0,0 l/m 0 min 2 min 0 W/m 14,6 km/h (3 Bft)
29.12.2014 08:00 0,5 C -1,1 C 96 % 1030,1 hPa 0,0 l/m 0 min 2 min 0 W/m 18,8 km/h (3 Bft)
29.12.2014 08:03 0,5 C -0,6 C 96 % 1030,1 hPa 0,0 l/m 0 min 2 min 0 W/m 16,7 km/h (3 Bft)
29.12.2014 08:05 0,5 C -0,6 C 96 % 1030,1 hPa 0,0 l/m 0 min 2 min 0 W/m 16,7 km/h (3 Bft)
29.12.2014 08:06 0,5 C -0,6 C 96 % 1030,1 hPa 0,0 l/m 0 min 1 min 0 W/m 10,5 km/h (2 Bft)
29.12.2014 08:08 0,5 C -0,6 C 96 % 1030,1 hPa 0,0 l/m 0 min 2 min 0 W/m 14,6 km/h (3 Bft)
29.12.2014 08:10 0,5 C -0,6 C 96 % 1030,1 hPa 0,0 l/m 0 min 2 min 0 W/m 18,8 km/h (3 Bft)
29.12.2014 08:12 0,5 C -0,6 C 96 % 1030,2 hPa 0,0 l/m 0 min 2 min 0 W/m 20,9 km/h (4 Bft)
29.12.2014 08:14 0,5 C -0,6 C 96 % 1030,1 hPa 0,0 l/m 0 min 2 min 0 W/m 16,7 km/h (3 Bft)
29.12.2014 08:16 0,5 C -0,6 C 96 % 1030,1 hPa 0,0 l/m 0 min 2 min 0 W/m 12,6 km/h (3 Bft)
29.12.2014 08:18 0,5 C -1,1 C 96 % 1030,1 hPa 0,0 l/m 0 min 2 min 0 W/m 14,6 km/h (3 Bft)
29.12.2014 08:20 0,5 C -1,1 C 96 % 1030,1 hPa 0,0 l/m 0 min 2 min 0 W/m 12,6 km/h (3 Bft)
29.12.2014 08:22 0,5 C -1,1 C 96 % 1030,1 hPa 0,0 l/m 0 min 2 min 0 W/m 16,7 km/h (3 Bft)
29.12.2014 08:24 0,5 C -1,1 C 96 % 1030,1 hPa 0,0 l/m 0 min 2 min 0 W/m 12,6 km/h (3 Bft)
29.12.2014 08:26 0,5 C -0,6 C 96 % 1030,2 hPa 0,0 l/m 0 min 2 min 0 W/m 14,6 km/h (3 Bft)
29.12.2014 08:28 0,5 C -0,6 C 96 % 1030,2 hPa 0,0 l/m 0 min 2 min 0 W/m 10,5 km/h (2 Bft)
29.12.2014 08:30 0,5 C -1,1 C 96 % 1030,2 hPa 0,0 l/m 0 min 2 min 0 W/m 10,5 km/h (2 Bft)
29.12.2014 08:32 0,5 C -1,1 C 96 % 1030,2 hPa 0,0 l/m 0 min 2 min 0 W/m 8,4 km/h (2 Bft)
29.12.2014 08:34 0,5 C -1,1 C 96 % 1030,2 hPa 0,0 l/m 0 min 2 min 0 W/m 14,6 km/h (3 Bft)
29.12.2014 08:36 0,5 C -1,1 C 96 % 1030,3 hPa 0,0 l/m 0 min 2 min 0 W/m 14,6 km/h (3 Bft)
29.12.2014 08:38 0,5 C -1,1 C 96 % 1030,2 hPa 0,0 l/m 0 min 2 min 0 W/m 18,8 km/h (3 Bft)
29.12.2014 08:40 0,5 C -1,1 C 96 % 1030,3 hPa 0,0 l/m 0 min 2 min 4 W/m 16,7 km/h (3 Bft)
29.12.2014 08:42 0,5 C -1,1 C 96 % 1030,3 hPa 0,0 l/m 0 min 2 min 5 W/m 14,6 km/h (3 Bft)
29.12.2014 08:44 0,5 C -0,6 C 96 % 1030,3 hPa 0,0 l/m 0 min 2 min 5 W/m 16,7 km/h (3 Bft)
29.12.2014 08:46 0,5 C -1,1 C 96 % 1030,3 hPa 0,0 l/m 0 min 2 min 5 W/m 12,6 km/h (3 Bft)
29.12.2014 08:48 0,5 C -1,1 C 96 % 1030,3 hPa 0,0 l/m 0 min 2 min 5 W/m 10,5 km/h (2 Bft)
29.12.2014 08:50 0,6 C -0,6 C 96 % 1030,3 hPa 0,0 l/m 0 min 2 min 6 W/m 14,6 km/h (3 Bft)
29.12.2014 08:52 0,6 C -0,6 C 96 % 1030,3 hPa 0,0 l/m 0 min 0 min 7 W/m 12,6 km/h (3 Bft)
29.12.2014 08:54 0,6 C -1,1 C 96 % 1030,2 hPa 0,0 l/m 0 min 0 min 9 W/m 16,7 km/h (3 Bft)
29.12.2014 08:56 0,6 C -1,1 C 96 % 1030,3 hPa 0,0 l/m 0 min 0 min 10 W/m 12,6 km/h (3 Bft)
29.12.2014 08:58 0,6 C -1,1 C 96 % 1030,3 hPa 0,0 l/m 0 min 0 min 11 W/m 12,6 km/h (3 Bft)
29.12.2014 09:00 0,6 C -1,1 C 96 % 1030,3 hPa 0,0 l/m 0 min 0 min 12 W/m 12,6 km/h (3 Bft)
29.12.2014 09:02 0,6 C -1,1 C 96 % 1030,3 hPa 0,0 l/m 0 min 0 min 13 W/m 12,6 km/h (3 Bft)
29.12.2014 09:04 0,6 C -1,1 C 96 % 1030,3 hPa 0,0 l/m 0 min 0 min 14 W/m 12,6 km/h (3 Bft)
29.12.2014 09:06 0,6 C -1,1 C 96 % 1030,4 hPa 0,0 l/m 0 min 0 min 16 W/m 10,5 km/h (2 Bft)
29.12.2014 09:08 0,6 C -1,1 C 96 % 1030,4 hPa 0,0 l/m 0 min 0 min 17 W/m 10,5 km/h (2 Bft)
29.12.2014 09:10 0,6 C -1,1 C 96 % 1030,5 hPa 0,0 l/m 0 min 0 min 17 W/m 14,6 km/h (3 Bft)
29.12.2014 09:12 0,6 C -0,6 C 96 % 1030,5 hPa 0,0 l/m 0 min 0 min 16 W/m 18,8 km/h (3 Bft)
29.12.2014 09:14 0,6 C -0,6 C 96 % 1030,5 hPa 0,0 l/m 0 min 0 min 16 W/m 18,8 km/h (3 Bft)
29.12.2014 09:16 0,7 C -0,6 C 96 % 1030,5 hPa 0,0 l/m 0 min 0 min 16 W/m 20,9 km/h (4 Bft)
29.12.2014 09:18 0,7 C -0,6 C 97 % 1030,5 hPa 0,0 l/m 0 min 0 min 16 W/m 18,8 km/h (3 Bft)
29.12.2014 09:20 0,7 C -0,6 C 97 % 1030,6 hPa 0,0 l/m 0 min 0 min 18 W/m 16,7 km/h (3 Bft)
29.12.2014 09:22 0,7 C -0,6 C 97 % 1030,7 hPa 0,0 l/m 0 min 0 min 17 W/m 12,6 km/h (3 Bft)
29.12.2014 09:24 0,7 C -0,6 C 97 % 1030,7 hPa 0,0 l/m 0 min 0 min 18 W/m 16,7 km/h (3 Bft)
29.12.2014 09:26 0,7 C -0,6 C 97 % 1030,7 hPa 0,0 l/m 0 min 0 min 21 W/m 16,7 km/h (3 Bft)
29.12.2014 09:28 0,7 C -0,6 C 97 % 1030,6 hPa 0,0 l/m 0 min 0 min 22 W/m 18,8 km/h (3 Bft)
29.12.2014 09:30 0,8 C -0,6 C 97 % 1030,6 hPa 0,0 l/m 0 min 0 min 24 W/m 14,6 km/h (3 Bft)
29.12.2014 09:32 0,8 C -0,6 C 97 % 1030,6 hPa 0,0 l/m 0 min 0 min 33 W/m 14,6 km/h (3 Bft)
29.12.2014 09:34 0,8 C -0,6 C 97 % 1030,7 hPa 0,0 l/m 0 min 0 min 34 W/m 16,7 km/h (3 Bft)
29.12.2014 09:36 0,8 C -0,6 C 97 % 1030,7 hPa 0,0 l/m 0 min 0 min 32 W/m 12,6 km/h (3 Bft)
29.12.2014 09:38 0,8 C -0,6 C 97 % 1030,8 hPa 0,0 l/m 0 min 0 min 30 W/m 12,6 km/h (3 Bft)
29.12.2014 09:40 0,8 C -0,6 C 97 % 1030,8 hPa 0,0 l/m 0 min 0 min 33 W/m 16,7 km/h (3 Bft)
29.12.2014 09:42 0,8 C -0,6 C 97 % 1030,8 hPa 0,0 l/m 0 min 0 min 34 W/m 14,6 km/h (3 Bft)
29.12.2014 09:44 0,8 C -0,6 C 97 % 1030,8 hPa 0,0 l/m 0 min 0 min 39 W/m 10,5 km/h (2 Bft)
29.12.2014 09:46 0,8 C -0,6 C 97 % 1030,9 hPa 0,0 l/m 2 min 0 min 60 W/m 18,8 km/h (3 Bft)
29.12.2014 09:48 0,8 C -0,6 C 97 % 1030,8 hPa 0,0 l/m 2 min 0 min 89 W/m 16,7 km/h (3 Bft)
29.12.2014 09:50 0,8 C -0,6 C 97 % 1031,0 hPa 0,0 l/m 2 min 0 min 79 W/m 23,0 km/h (4 Bft)
29.12.2014 09:52 0,9 C -0,6 C 97 % 1031,1 hPa 0,0 l/m 2 min 0 min 68 W/m 18,8 km/h (3 Bft)
29.12.2014 09:54 0,9 C -0,6 C 97 % 1031,1 hPa 0,0 l/m 2 min 0 min 79 W/m 16,7 km/h (3 Bft)
29.12.2014 09:56 0,9 C -0,6 C 97 % 1031,1 hPa 0,0 l/m 2 min 0 min 78 W/m 14,6 km/h (3 Bft)
29.12.2014 09:58 0,9 C -0,6 C 97 % 1031,1 hPa 0,0 l/m 2 min 0 min 90 W/m 16,7 km/h (3 Bft)
29.12.2014 10:00 0,9 C -0,6 C 97 % 1031,2 hPa 0,0 l/m 2 min 0 min 99 W/m 12,6 km/h (3 Bft)
29.12.2014 10:02 1,0 C -0,6 C 97 % 1031,1 hPa 0,0 l/m 2 min 0 min 83 W/m 12,6 km/h (3 Bft)
29.12.2014 10:04 1,0 C -0,6 C 97 % 1031,3 hPa 0,0 l/m 0 min 0 min 68 W/m 16,7 km/h (3 Bft)
29.12.2014 10:06 1,0 C 0,0 C 97 % 1031,3 hPa 0,0 l/m 2 min 0 min 88 W/m 18,8 km/h (3 Bft)
29.12.2014 10:08 1,1 C 0,0 C 97 % 1031,4 hPa 0,0 l/m 2 min 0 min 105 W/m 18,8 km/h (3 Bft)
29.12.2014 10:10 1,1 C 0,0 C 97 % 1031,3 hPa 0,0 l/m 2 min 0 min 91 W/m 12,6 km/h (3 Bft)
29.12.2014 10:12 1,1 C 0,0 C 97 % 1031,5 hPa 0,0 l/m 0 min 0 min 57 W/m 20,9 km/h (4 Bft)
29.12.2014 10:14 1,2 C 0,0 C 97 % 1031,4 hPa 0,0 l/m 0 min 0 min 59 W/m 18,8 km/h (3 Bft)
29.12.2014 10:16 1,2 C 0,0 C 97 % 1031,5 hPa 0,0 l/m 2 min 0 min 87 W/m 12,6 km/h (3 Bft)
29.12.2014 10:18 1,2 C 0,6 C 97 % 1031,4 hPa 0,0 l/m 2 min 0 min 138 W/m 18,8 km/h (3 Bft)
29.12.2014 10:20 1,3 C 0,6 C 97 % 1031,4 hPa 0,0 l/m 2 min 0 min 159 W/m 16,7 km/h (3 Bft)
29.12.2014 10:22 1,3 C 0,6 C 97 % 1031,4 hPa 0,0 l/m 2 min 2 min 107 W/m 18,8 km/h (3 Bft)
29.12.2014 10:24 1,4 C 0,6 C 97 % 1031,4 hPa 0,0 l/m 0 min 2 min 55 W/m 20,9 km/h (4 Bft)
29.12.2014 10:26 1,4 C 0,6 C 97 % 1031,5 hPa 0,0 l/m 0 min 2 min 48 W/m 18,8 km/h (3 Bft)
29.12.2014 10:28 1,4 C 0,6 C 97 % 1031,5 hPa 0,0 l/m 0 min 2 min 59 W/m 16,7 km/h (3 Bft)
29.12.2014 10:30 1,5 C 0,6 C 97 % 1031,5 hPa 0,0 l/m 0 min 2 min 59 W/m 18,8 km/h (3 Bft)
29.12.2014 10:32 1,5 C 0,6 C 97 % 1031,5 hPa 0,0 l/m 0 min 2 min 61 W/m 18,8 km/h (3 Bft)
29.12.2014 10:34 1,6 C 0,6 C 97 % 1031,5 hPa 0,0 l/m 0 min 2 min 73 W/m 18,8 km/h (3 Bft)
29.12.2014 10:36 1,6 C 0,6 C 97 % 1031,5 hPa 0,0 l/m 0 min 2 min 81 W/m 12,6 km/h (3 Bft)
29.12.2014 10:38 1,6 C 0,6 C 97 % 1031,5 hPa 0,0 l/m 0 min 2 min 83 W/m 16,7 km/h (3 Bft)
29.12.2014 10:40 1,7 C 0,6 C 97 % 1031,5 hPa 0,0 l/m 0 min 2 min 81 W/m 18,8 km/h (3 Bft)
29.12.2014 10:42 1,7 C 0,6 C 97 % 1031,5 hPa 0,0 l/m 0 min 2 min 78 W/m 20,9 km/h (4 Bft)
29.12.2014 10:44 1,7 C 0,6 C 97 % 1031,5 hPa 0,0 l/m 0 min 0 min 89 W/m 18,8 km/h (3 Bft)
29.12.2014 10:46 1,8 C 0,6 C 97 % 1031,5 hPa 0,0 l/m 0 min 0 min 92 W/m 12,6 km/h (3 Bft)
29.12.2014 10:48 1,8 C 0,6 C 97 % 1031,5 hPa 0,0 l/m 0 min 0 min 78 W/m 14,6 km/h (3 Bft)
29.12.2014 10:50 1,8 C 0,6 C 97 % 1031,5 hPa 0,0 l/m 0 min 0 min 81 W/m 18,8 km/h (3 Bft)
29.12.2014 10:52 1,8 C 0,6 C 97 % 1031,5 hPa 0,0 l/m 0 min 0 min 83 W/m 14,6 km/h (3 Bft)
29.12.2014 10:54 1,9 C 0,6 C 97 % 1031,5 hPa 0,0 l/m 0 min 0 min 78 W/m 18,8 km/h (3 Bft)
29.12.2014 10:56 1,9 C 0,6 C 97 % 1031,5 hPa 0,0 l/m 0 min 0 min 85 W/m 14,6 km/h (3 Bft)
29.12.2014 10:58 1,9 C 0,6 C 97 % 1031,5 hPa 0,0 l/m 0 min 0 min 94 W/m 14,6 km/h (3 Bft)
29.12.2014 11:00 1,9 C 0,6 C 97 % 1031,5 hPa 0,0 l/m 2 min 0 min 117 W/m 16,7 km/h (3 Bft)
29.12.2014 11:02 1,9 C 1,1 C 97 % 1031,5 hPa 0,0 l/m 2 min 0 min 137 W/m 18,8 km/h (3 Bft)
29.12.2014 11:04 2,0 C 1,1 C 97 % 1031,6 hPa 0,0 l/m 2 min 0 min 151 W/m 18,8 km/h (3 Bft)
29.12.2014 11:06 2,0 C 1,1 C 97 % 1031,7 hPa 0,0 l/m 2 min 0 min 119 W/m 16,7 km/h (3 Bft)
29.12.2014 11:08 2,0 C 1,1 C 97 % 1031,7 hPa 0,0 l/m 0 min 0 min 72 W/m 14,6 km/h (3 Bft)
29.12.2014 11:10 2,1 C 0,6 C 97 % 1031,7 hPa 0,0 l/m 0 min 0 min 75 W/m 12,6 km/h (3 Bft)
29.12.2014 11:12 2,1 C 1,1 C 97 % 1031,8 hPa 0,0 l/m 0 min 0 min 83 W/m 16,7 km/h (3 Bft)
29.12.2014 11:14 2,1 C 1,1 C 97 % 1031,8 hPa 0,0 l/m 0 min 0 min 87 W/m 23,0 km/h (4 Bft)
29.12.2014 11:16 2,1 C 1,1 C 97 % 1031,8 hPa 0,0 l/m 0 min 0 min 92 W/m 12,6 km/h (3 Bft)
29.12.2014 11:18 2,1 C 0,6 C 97 % 1031,7 hPa 0,0 l/m 0 min 0 min 90 W/m 20,9 km/h (4 Bft)
29.12.2014 11:20 2,1 C 0,6 C 97 % 1031,7 hPa 0,0 l/m 0 min 0 min 85 W/m 20,9 km/h (4 Bft)
29.12.2014 11:22 2,1 C 0,6 C 97 % 1031,7 hPa 0,0 l/m 0 min 0 min 68 W/m 18,8 km/h (3 Bft)
29.12.2014 11:24 2,1 C 0,6 C 97 % 1031,7 hPa 0,0 l/m 0 min 0 min 61 W/m 16,7 km/h (3 Bft)
29.12.2014 11:26 2,2 C 0,6 C 97 % 1031,7 hPa 0,0 l/m 0 min 0 min 70 W/m 14,6 km/h (3 Bft)
29.12.2014 11:28 2,1 C 0,6 C 97 % 1031,7 hPa 0,2 l/m 2 min 0 min 135 W/m 16,7 km/h (3 Bft)
29.12.2014 11:30 2,2 C 0,6 C 97 % 1031,7 hPa 0,0 l/m 2 min 0 min 166 W/m 16,7 km/h (3 Bft)
29.12.2014 11:32 2,2 C 0,6 C 97 % 1031,8 hPa 0,0 l/m 2 min 0 min 192 W/m 18,8 km/h (3 Bft)
29.12.2014 11:34 2,2 C 0,6 C 97 % 1031,8 hPa 0,0 l/m 2 min 0 min 264 W/m 16,7 km/h (3 Bft)
29.12.2014 11:36 2,2 C 1,1 C 97 % 1031,7 hPa 0,0 l/m 2 min 0 min 213 W/m 18,8 km/h (3 Bft)
29.12.2014 11:38 2,3 C 1,1 C 97 % 1031,8 hPa 0,0 l/m 2 min 0 min 132 W/m 12,6 km/h (3 Bft)
29.12.2014 11:40 2,3 C 1,1 C 97 % 1031,8 hPa 0,2 l/m 2 min 0 min 165 W/m 20,9 km/h (4 Bft)
29.12.2014 11:42 2,4 C 0,6 C 97 % 1031,9 hPa 0,0 l/m 2 min 0 min 202 W/m 18,8 km/h (3 Bft)
29.12.2014 11:44 2,4 C 1,1 C 97 % 1031,9 hPa 0,0 l/m 2 min 0 min 217 W/m 20,9 km/h (4 Bft)
29.12.2014 11:46 2,4 C 1,1 C 97 % 1032,0 hPa 0,0 l/m 2 min 0 min 206 W/m 14,6 km/h (3 Bft)
29.12.2014 11:48 2,5 C 1,1 C 97 % 1032,0 hPa 0,0 l/m 2 min 0 min 153 W/m 16,7 km/h (3 Bft)
29.12.2014 11:50 2,6 C 1,1 C 97 % 1032,0 hPa 0,0 l/m 2 min 0 min 210 W/m 20,9 km/h (4 Bft)
29.12.2014 11:52 2,6 C 1,1 C 97 % 1032,0 hPa 0,2 l/m 2 min 0 min 188 W/m 20,9 km/h (4 Bft)
29.12.2014 11:54 2,6 C 1,1 C 97 % 1032,0 hPa 0,0 l/m 2 min 0 min 214 W/m 23,0 km/h (4 Bft)
29.12.2014 11:56 2,7 C 1,1 C 97 % 1032,0 hPa 0,0 l/m 2 min 0 min 244 W/m 16,7 km/h (3 Bft)
29.12.2014 11:58 2,7 C 1,7 C 97 % 1032,0 hPa 0,2 l/m 2 min 0 min 289 W/m 25,1 km/h (4 Bft)
29.12.2014 12:00 2,7 C 1,7 C 97 % 1032,0 hPa 0,0 l/m 2 min 0 min 268 W/m 27,2 km/h (4 Bft)
29.12.2014 12:02 2,8 C 1,7 C 97 % 1032,0 hPa 0,0 l/m 2 min 0 min 156 W/m 18,8 km/h (3 Bft)
29.12.2014 12:05 2,8 C 1,1 C 97 % 1032,0 hPa 0,2 l/m 0 min 0 min 91 W/m 18,8 km/h (3 Bft)
29.12.2014 12:08 2,8 C 1,1 C 97 % 1032,0 hPa 0,2 l/m 2 min 0 min 143 W/m 18,8 km/h (3 Bft)
29.12.2014 12:10 2,9 C 1,1 C 97 % 1031,9 hPa 0,0 l/m 2 min 0 min 211 W/m 27,2 km/h (4 Bft)
29.12.2014 12:12 2,9 C 1,7 C 97 % 1031,8 hPa 0,0 l/m 2 min 0 min 201 W/m 20,9 km/h (4 Bft)
29.12.2014 12:14 2,9 C 1,7 C 97 % 1031,9 hPa 0,0 l/m 2 min 0 min 197 W/m 16,7 km/h (3 Bft)
29.12.2014 12:16 2,9 C 1,7 C 97 % 1031,9 hPa 0,0 l/m 2 min 0 min 180 W/m 27,2 km/h (4 Bft)
29.12.2014 12:18 3,0 C 1,7 C 96 % 1032,0 hPa 0,0 l/m 2 min 0 min 218 W/m 16,7 km/h (3 Bft)
29.12.2014 12:20 3,0 C 1,7 C 96 % 1031,9 hPa 0,2 l/m 2 min 0 min 230 W/m 23,0 km/h (4 Bft)
29.12.2014 12:22 3,0 C 1,7 C 96 % 1032,0 hPa 0,0 l/m 2 min 0 min 229 W/m 18,8 km/h (3 Bft)
29.12.2014 12:24 3,1 C 1,7 C 96 % 1031,9 hPa 0,2 l/m 2 min 0 min 223 W/m 18,8 km/h (3 Bft)
29.12.2014 12:26 3,1 C 1,7 C 96 % 1031,9 hPa 0,0 l/m 2 min 0 min 219 W/m 25,1 km/h (4 Bft)
29.12.2014 12:28 3,1 C 1,7 C 96 % 1032,0 hPa 0,0 l/m 2 min 0 min 225 W/m 23,0 km/h (4 Bft)
29.12.2014 12:30 3,2 C 1,7 C 96 % 1031,9 hPa 0,0 l/m 2 min 0 min 223 W/m 20,9 km/h (4 Bft)
29.12.2014 12:32 3,2 C 1,7 C 96 % 1031,9 hPa 0,2 l/m 2 min 0 min 221 W/m 18,8 km/h (3 Bft)
29.12.2014 12:34 3,3 C 1,7 C 96 % 1031,9 hPa 0,2 l/m 2 min 0 min 225 W/m 20,9 km/h (4 Bft)
29.12.2014 12:36 3,3 C 1,7 C 96 % 1031,9 hPa 0,0 l/m 2 min 0 min 223 W/m 16,7 km/h (3 Bft)
29.12.2014 12:38 3,3 C 1,7 C 95 % 1031,9 hPa 0,0 l/m 2 min 0 min 227 W/m 23,0 km/h (4 Bft)
29.12.2014 12:40 3,4 C 1,7 C 95 % 1031,9 hPa 0,0 l/m 2 min 0 min 229 W/m 23,0 km/h (4 Bft)
29.12.2014 12:42 3,4 C 1,7 C 95 % 1031,9 hPa 0,2 l/m 2 min 0 min 230 W/m 23,0 km/h (4 Bft)
29.12.2014 12:44 3,4 C 2,2 C 95 % 1031,9 hPa 0,0 l/m 2 min 0 min 230 W/m 18,8 km/h (3 Bft)
29.12.2014 12:46 3,5 C 1,7 C 95 % 1032,0 hPa 0,2 l/m 2 min 0 min 231 W/m 23,0 km/h (4 Bft)
29.12.2014 12:48 3,6 C 1,7 C 95 % 1032,0 hPa 0,0 l/m 2 min 0 min 230 W/m 16,7 km/h (3 Bft)
29.12.2014 12:50 3,6 C 2,2 C 94 % 1032,0 hPa 0,0 l/m 2 min 0 min 231 W/m 23,0 km/h (4 Bft)
29.12.2014 12:52 3,6 C 2,2 C 94 % 1032,0 hPa 0,0 l/m 2 min 0 min 231 W/m 18,8 km/h (3 Bft)
29.12.2014 12:54 3,6 C 2,2 C 94 % 1032,1 hPa 0,2 l/m 2 min 0 min 233 W/m 18,8 km/h (3 Bft)
29.12.2014 12:56 3,7 C 2,2 C 93 % 1032,1 hPa 0,0 l/m 2 min 0 min 238 W/m 18,8 km/h (3 Bft)
29.12.2014 12:58 3,7 C 2,2 C 93 % 1032,1 hPa 0,0 l/m 2 min 0 min 262 W/m 23,0 km/h (4 Bft)
29.12.2014 13:00 3,7 C 2,2 C 93 % 1032,0 hPa 0,2 l/m 2 min 0 min 319 W/m 20,9 km/h (4 Bft)
29.12.2014 13:02 3,7 C 2,8 C 93 % 1032,1 hPa 0,0 l/m 2 min 0 min 333 W/m 20,9 km/h (4 Bft)
29.12.2014 13:04 3,8 C 2,2 C 92 % 1032,0 hPa 0,0 l/m 2 min 0 min 175 W/m 25,1 km/h (4 Bft)
29.12.2014 13:06 3,8 C 2,2 C 92 % 1032,0 hPa 0,2 l/m 0 min 0 min 131 W/m 18,8 km/h (3 Bft)
29.12.2014 13:08 3,8 C 2,2 C 92 % 1032,0 hPa 0,0 l/m 0 min 0 min 124 W/m 25,1 km/h (4 Bft)
29.12.2014 13:10 3,8 C 2,2 C 92 % 1032,1 hPa 0,2 l/m 0 min 0 min 122 W/m 16,7 km/h (3 Bft)
29.12.2014 13:12 3,8 C 2,2 C 91 % 1032,1 hPa 0,0 l/m 0 min 0 min 108 W/m 12,6 km/h (3 Bft)
29.12.2014 13:14 3,8 C 2,2 C 91 % 1032,2 hPa 0,0 l/m 0 min 0 min 99 W/m 16,7 km/h (3 Bft)
29.12.2014 13:16 3,8 C 2,2 C 91 % 1032,1 hPa 0,0 l/m 0 min 0 min 94 W/m 20,9 km/h (4 Bft)
29.12.2014 13:18 3,8 C 2,2 C 91 % 1032,2 hPa 0,0 l/m 0 min 0 min 97 W/m 16,7 km/h (3 Bft)
29.12.2014 13:20 3,7 C 2,2 C 90 % 1032,2 hPa 0,2 l/m 0 min 0 min 117 W/m 16,7 km/h (3 Bft)
29.12.2014 13:22 3,7 C 2,2 C 90 % 1032,2 hPa 0,0 l/m 0 min 0 min 87 W/m 16,7 km/h (3 Bft)
29.12.2014 13:24 3,7 C 1,7 C 90 % 1032,3 hPa 0,0 l/m 0 min 0 min 84 W/m 20,9 km/h (4 Bft)
29.12.2014 13:26 3,7 C 2,2 C 90 % 1032,3 hPa 0,0 l/m 2 min 0 min 149 W/m 16,7 km/h (3 Bft)
29.12.2014 13:28 3,7 C 2,2 C 90 % 1032,3 hPa 0,2 l/m 2 min 0 min 151 W/m 18,8 km/h (3 Bft)
29.12.2014 13:30 3,6 C 2,2 C 90 % 1032,2 hPa 0,0 l/m 0 min 0 min 120 W/m 23,0 km/h (4 Bft)
29.12.2014 13:32 3,6 C 2,2 C 90 % 1032,2 hPa 0,0 l/m 0 min 0 min 108 W/m 16,7 km/h (3 Bft)
29.12.2014 13:34 3,6 C 2,2 C 90 % 1032,2 hPa 0,0 l/m 0 min 0 min 102 W/m 16,7 km/h (3 Bft)
29.12.2014 13:36 3,6 C 1,7 C 90 % 1032,3 hPa 0,0 l/m 0 min 0 min 103 W/m 23,0 km/h (4 Bft)
29.12.2014 13:38 3,6 C 1,7 C 90 % 1032,3 hPa 0,0 l/m 0 min 0 min 114 W/m 20,9 km/h (4 Bft)
29.12.2014 13:40 3,5 C 1,7 C 90 % 1032,4 hPa 0,2 l/m 2 min 0 min 140 W/m 14,6 km/h (3 Bft)
29.12.2014 13:42 3,5 C 2,2 C 90 % 1032,3 hPa 0,0 l/m 2 min 0 min 218 W/m 16,7 km/h (3 Bft)
29.12.2014 13:44 3,5 C 2,2 C 90 % 1032,3 hPa 0,0 l/m 2 min 0 min 252 W/m 12,6 km/h (3 Bft)
29.12.2014 13:46 3,5 C 2,2 C 90 % 1032,4 hPa 0,0 l/m 2 min 0 min 240 W/m 20,9 km/h (4 Bft)
29.12.2014 13:48 3,5 C 2,2 C 90 % 1032,4 hPa 0,2 l/m 0 min 0 min 96 W/m 18,8 km/h (3 Bft)
29.12.2014 13:50 3,5 C 2,2 C 90 % 1032,4 hPa 0,0 l/m 0 min 0 min 70 W/m 20,9 km/h (4 Bft)
29.12.2014 13:52 3,5 C 2,2 C 90 % 1032,5 hPa 0,0 l/m 0 min 0 min 74 W/m 23,0 km/h (4 Bft)
29.12.2014 13:54 3,5 C 1,7 C 90 % 1032,5 hPa 0,0 l/m 0 min 0 min 72 W/m 20,9 km/h (4 Bft)
29.12.2014 13:56 3,4 C 1,7 C 89 % 1032,5 hPa 0,0 l/m 0 min 0 min 66 W/m 23,0 km/h (4 Bft)
29.12.2014 13:58 3,4 C 1,7 C 89 % 1032,6 hPa 0,0 l/m 0 min 0 min 68 W/m 18,8 km/h (3 Bft)
29.12.2014 14:00 3,4 C 1,7 C 89 % 1032,6 hPa 0,2 l/m 2 min 0 min 130 W/m 18,8 km/h (3 Bft)
29.12.2014 14:02 3,4 C 2,2 C 89 % 1032,7 hPa 0,0 l/m 2 min 0 min 148 W/m 18,8 km/h (3 Bft)
29.12.2014 14:04 3,4 C 2,2 C 89 % 1032,7 hPa 0,0 l/m 2 min 0 min 172 W/m 14,6 km/h (3 Bft)
29.12.2014 14:06 3,4 C 2,2 C 89 % 1032,7 hPa 0,0 l/m 2 min 0 min 121 W/m 12,6 km/h (3 Bft)
29.12.2014 14:08 3,4 C 2,2 C 89 % 1032,7 hPa 0,0 l/m 2 min 0 min 122 W/m 18,8 km/h (3 Bft)
29.12.2014 14:10 3,4 C 2,2 C 89 % 1032,7 hPa 0,2 l/m 0 min 0 min 97 W/m 16,7 km/h (3 Bft)
29.12.2014 14:12 3,4 C 2,2 C 89 % 1032,8 hPa 0,0 l/m 0 min 0 min 82 W/m 20,9 km/h (4 Bft)
29.12.2014 14:14 3,4 C 1,7 C 89 % 1032,7 hPa 0,0 l/m 0 min 0 min 92 W/m 18,8 km/h (3 Bft)
29.12.2014 14:16 3,4 C 1,7 C 89 % 1032,7 hPa 0,0 l/m 0 min 0 min 75 W/m 20,9 km/h (4 Bft)
29.12.2014 14:18 3,4 C 1,7 C 89 % 1032,7 hPa 0,0 l/m 0 min 0 min 68 W/m 16,7 km/h (3 Bft)
29.12.2014 14:20 3,4 C 1,7 C 89 % 1032,8 hPa 0,0 l/m 0 min 0 min 55 W/m 18,8 km/h (3 Bft)
29.12.2014 14:22 3,3 C 1,7 C 89 % 1032,7 hPa 0,0 l/m 0 min 0 min 63 W/m 27,2 km/h (4 Bft)
29.12.2014 14:24 3,3 C 1,7 C 89 % 1032,7 hPa 0,0 l/m 0 min 0 min 65 W/m 16,7 km/h (3 Bft)
29.12.2014 14:26 3,3 C 1,7 C 89 % 1032,6 hPa 0,2 l/m 0 min 0 min 67 W/m 18,8 km/h (3 Bft)
29.12.2014 14:28 3,2 C 1,7 C 89 % 1032,5 hPa 0,0 l/m 2 min 0 min 104 W/m 14,6 km/h (3 Bft)
29.12.2014 14:30 3,2 C 1,7 C 89 % 1032,5 hPa 0,0 l/m 2 min 0 min 128 W/m 29,3 km/h (5 Bft)
29.12.2014 14:32 3,2 C 1,7 C 89 % 1032,7 hPa 0,0 l/m 2 min 0 min 137 W/m 25,1 km/h (4 Bft)
29.12.2014 14:34 3,1 C 1,7 C 89 % 1032,7 hPa 0,0 l/m 2 min 0 min 128 W/m 20,9 km/h (4 Bft)
29.12.2014 14:36 3,1 C 1,7 C 89 % 1032,7 hPa 0,0 l/m 2 min 0 min 134 W/m 23,0 km/h (4 Bft)
29.12.2014 14:38 3,1 C 1,7 C 88 % 1032,8 hPa 0,0 l/m 2 min 0 min 100 W/m 27,2 km/h (4 Bft)
29.12.2014 14:40 3,1 C 1,7 C 88 % 1032,8 hPa 0,2 l/m 0 min 0 min 75 W/m 20,9 km/h (4 Bft)
29.12.2014 14:42 3,1 C 1,7 C 88 % 1032,9 hPa 0,0 l/m 0 min 0 min 60 W/m 27,2 km/h (4 Bft)
29.12.2014 14:44 3,0 C 1,7 C 87 % 1032,9 hPa 0,0 l/m 0 min 0 min 54 W/m 29,3 km/h (5 Bft)
29.12.2014 14:46 3,0 C 1,7 C 87 % 1032,9 hPa 0,0 l/m 2 min 0 min 105 W/m 20,9 km/h (4 Bft)
29.12.2014 14:48 3,0 C 1,7 C 87 % 1032,9 hPa 0,0 l/m 2 min 0 min 112 W/m 20,9 km/h (4 Bft)
29.12.2014 14:50 2,9 C 1,7 C 87 % 1032,9 hPa 0,0 l/m 2 min 0 min 103 W/m 18,8 km/h (3 Bft)
29.12.2014 14:52 2,9 C 1,1 C 87 % 1032,9 hPa 0,0 l/m 0 min 0 min 79 W/m 16,7 km/h (3 Bft)
29.12.2014 14:54 2,9 C 1,7 C 87 % 1033,0 hPa 0,0 l/m 0 min 0 min 72 W/m 18,8 km/h (3 Bft)
29.12.2014 14:56 2,9 C 1,1 C 87 % 1033,1 hPa 0,0 l/m 0 min 0 min 54 W/m 20,9 km/h (4 Bft)
29.12.2014 14:58 2,9 C 1,1 C 86 % 1033,1 hPa 0,0 l/m 0 min 0 min 64 W/m 16,7 km/h (3 Bft)
29.12.2014 15:00 2,9 C 1,1 C 86 % 1033,2 hPa 0,0 l/m 0 min 0 min 78 W/m 14,6 km/h (3 Bft)
29.12.2014 15:02 2,9 C 1,1 C 86 % 1033,2 hPa 0,0 l/m 2 min 0 min 88 W/m 14,6 km/h (3 Bft)
29.12.2014 15:04 2,9 C 1,1 C 87 % 1033,2 hPa 0,0 l/m 2 min 0 min 85 W/m 23,0 km/h (4 Bft)
29.12.2014 15:06 2,9 C 1,1 C 87 % 1033,3 hPa 0,0 l/m 2 min 0 min 83 W/m 18,8 km/h (3 Bft)
29.12.2014 15:08 2,9 C 1,1 C 87 % 1033,3 hPa 0,2 l/m 2 min 0 min 80 W/m 18,8 km/h (3 Bft)
29.12.2014 15:10 2,9 C 1,1 C 87 % 1033,3 hPa 0,0 l/m 2 min 0 min 79 W/m 16,7 km/h (3 Bft)
29.12.2014 15:12 2,9 C 1,1 C 87 % 1033,3 hPa 0,0 l/m 2 min 0 min 75 W/m 25,1 km/h (4 Bft)
29.12.2014 15:14 2,8 C 1,1 C 87 % 1033,3 hPa 0,0 l/m 2 min 0 min 71 W/m 18,8 km/h (3 Bft)
29.12.2014 15:16 2,8 C 1,1 C 87 % 1033,3 hPa 0,0 l/m 2 min 0 min 69 W/m 16,7 km/h (3 Bft)
29.12.2014 15:18 2,8 C 1,1 C 87 % 1033,3 hPa 0,0 l/m 0 min 0 min 65 W/m 18,8 km/h (3 Bft)
29.12.2014 15:20 2,8 C 1,1 C 87 % 1033,4 hPa 0,0 l/m 0 min 0 min 64 W/m 18,8 km/h (3 Bft)
29.12.2014 15:22 2,8 C 1,1 C 87 % 1033,4 hPa 0,0 l/m 0 min 0 min 63 W/m 18,8 km/h (3 Bft)
29.12.2014 15:24 2,8 C 1,1 C 87 % 1033,4 hPa 0,0 l/m 2 min 0 min 63 W/m 14,6 km/h (3 Bft)
29.12.2014 15:26 2,8 C 1,1 C 87 % 1033,4 hPa 0,0 l/m 2 min 0 min 62 W/m 20,9 km/h (4 Bft)
29.12.2014 15:28 2,8 C 1,1 C 87 % 1033,5 hPa 0,0 l/m 2 min 0 min 62 W/m 23,0 km/h (4 Bft)
29.12.2014 15:30 2,7 C 1,1 C 87 % 1033,5 hPa 0,0 l/m 2 min 0 min 60 W/m 12,6 km/h (3 Bft)
29.12.2014 15:32 2,7 C 1,1 C 87 % 1033,6 hPa 0,0 l/m 2 min 0 min 56 W/m 10,5 km/h (2 Bft)
29.12.2014 15:34 2,7 C 1,1 C 87 % 1033,6 hPa 0,0 l/m 0 min 0 min 49 W/m 14,6 km/h (3 Bft)
29.12.2014 15:36 2,7 C 1,1 C 86 % 1033,7 hPa 0,0 l/m 0 min 0 min 47 W/m 10,5 km/h (2 Bft)
29.12.2014 15:38 2,7 C 1,1 C 86 % 1033,8 hPa 0,2 l/m 0 min 0 min 38 W/m 10,5 km/h (2 Bft)
29.12.2014 15:40 2,7 C 1,1 C 86 % 1033,9 hPa 0,0 l/m 0 min 0 min 34 W/m 16,7 km/h (3 Bft)
29.12.2014 15:42 2,7 C 1,1 C 86 % 1033,9 hPa 0,0 l/m 0 min 0 min 36 W/m 14,6 km/h (3 Bft)
29.12.2014 15:44 2,7 C 1,1 C 86 % 1033,9 hPa 0,0 l/m 0 min 0 min 33 W/m 8,4 km/h (2 Bft)
29.12.2014 15:46 2,7 C 1,1 C 86 % 1033,9 hPa 0,0 l/m 0 min 0 min 33 W/m 12,6 km/h (3 Bft)
29.12.2014 15:48 2,7 C 1,1 C 86 % 1033,9 hPa 0,0 l/m 0 min 0 min 33 W/m 10,5 km/h (2 Bft)
29.12.2014 15:50 2,7 C 1,1 C 86 % 1034,0 hPa 0,0 l/m 0 min 0 min 28 W/m 12,6 km/h (3 Bft)
29.12.2014 15:52 2,6 C 1,1 C 86 % 1034,0 hPa 0,0 l/m 0 min 0 min 31 W/m 8,4 km/h (2 Bft)
29.12.2014 15:54 2,6 C 1,1 C 86 % 1034,0 hPa 0,0 l/m 0 min 0 min 33 W/m 8,4 km/h (2 Bft)
29.12.2014 15:56 2,6 C 1,1 C 86 % 1034,1 hPa 0,0 l/m 0 min 0 min 32 W/m 10,5 km/h (2 Bft)
29.12.2014 15:58 2,6 C 1,1 C 86 % 1034,1 hPa 0,0 l/m 0 min 0 min 26 W/m 10,5 km/h (2 Bft)
29.12.2014 16:00 2,6 C 1,1 C 86 % 1034,2 hPa 0,0 l/m 0 min 0 min 20 W/m 10,5 km/h (2 Bft)
29.12.2014 16:02 2,6 C 1,1 C 86 % 1034,2 hPa 0,0 l/m 0 min 0 min 18 W/m 12,6 km/h (3 Bft)
29.12.2014 16:04 2,6 C 1,1 C 86 % 1034,2 hPa 0,0 l/m 0 min 0 min 18 W/m 8,4 km/h (2 Bft)
29.12.2014 16:06 2,5 C 1,1 C 86 % 1034,2 hPa 0,0 l/m 0 min 0 min 18 W/m 10,5 km/h (2 Bft)
29.12.2014 16:08 2,5 C 1,1 C 86 % 1034,2 hPa 0,0 l/m 0 min 0 min 17 W/m 6,3 km/h (2 Bft)
29.12.2014 16:10 2,5 C 0,6 C 86 % 1034,3 hPa 0,0 l/m 0 min 0 min 14 W/m 10,5 km/h (2 Bft)
29.12.2014 16:12 2,5 C 0,6 C 86 % 1034,3 hPa 0,0 l/m 0 min 0 min 14 W/m 10,5 km/h (2 Bft)
29.12.2014 16:14 2,4 C 0,6 C 86 % 1034,4 hPa 0,0 l/m 2 min 0 min 14 W/m 8,4 km/h (2 Bft)
29.12.2014 16:16 2,4 C 0,6 C 86 % 1034,5 hPa 0,0 l/m 0 min 0 min 12 W/m 10,5 km/h (2 Bft)
29.12.2014 16:18 2,4 C 0,6 C 86 % 1034,5 hPa 0,0 l/m 0 min 0 min 12 W/m 6,3 km/h (2 Bft)
29.12.2014 16:20 2,4 C 0,6 C 86 % 1034,5 hPa 0,0 l/m 0 min 0 min 12 W/m 6,3 km/h (2 Bft)
29.12.2014 16:22 2,4 C 0,6 C 86 % 1034,6 hPa 0,0 l/m 0 min 0 min 11 W/m 6,3 km/h (2 Bft)
29.12.2014 16:24 2,4 C 0,6 C 86 % 1034,7 hPa 0,0 l/m 0 min 0 min 11 W/m 6,3 km/h (2 Bft)
29.12.2014 16:26 2,3 C 0,6 C 86 % 1034,7 hPa 0,0 l/m 0 min 0 min 9 W/m 4,2 km/h (1 Bft)
29.12.2014 16:28 2,3 C 0,6 C 86 % 1034,7 hPa 0,0 l/m 0 min 0 min 8 W/m 6,3 km/h (2 Bft)
29.12.2014 16:30 2,3 C 0,6 C 86 % 1034,7 hPa 0,0 l/m 0 min 0 min 7 W/m 6,3 km/h (2 Bft)
29.12.2014 16:32 2,3 C 0,0 C 86 % 1034,7 hPa 0,0 l/m 0 min 0 min 8 W/m 6,3 km/h (2 Bft)
29.12.2014 16:34 2,3 C 0,0 C 86 % 1034,7 hPa 0,0 l/m 0 min 0 min 9 W/m 6,3 km/h (2 Bft)
29.12.2014 16:36 2,3 C 0,0 C 86 % 1034,7 hPa 0,0 l/m 0 min 0 min 9 W/m 6,3 km/h (2 Bft)
29.12.2014 16:38 2,2 C -0,6 C 86 % 1034,7 hPa 0,0 l/m 0 min 0 min 9 W/m 4,2 km/h (1 Bft)
29.12.2014 16:40 2,2 C -0,6 C 86 % 1034,8 hPa 0,0 l/m 0 min 0 min 8 W/m 6,3 km/h (2 Bft)
29.12.2014 16:42 2,2 C -0,6 C 86 % 1034,8 hPa 0,0 l/m 0 min 0 min 7 W/m 8,4 km/h (2 Bft)
29.12.2014 16:44 2,1 C -0,6 C 86 % 1034,8 hPa 0,0 l/m 0 min 0 min 6 W/m 6,3 km/h (2 Bft)
29.12.2014 16:46 2,1 C -0,6 C 86 % 1034,9 hPa 0,0 l/m 0 min 0 min 5 W/m 4,2 km/h (1 Bft)
29.12.2014 16:48 2,1 C -1,1 C 86 % 1034,9 hPa 0,0 l/m 0 min 0 min 0 W/m 6,3 km/h (2 Bft)
29.12.2014 16:50 2,0 C -1,1 C 86 % 1034,9 hPa 0,0 l/m 0 min 0 min 0 W/m 6,3 km/h (2 Bft)
29.12.2014 16:52 1,9 C -1,1 C 86 % 1034,9 hPa 0,0 l/m 0 min 0 min 0 W/m 6,3 km/h (2 Bft)
29.12.2014 16:54 1,9 C -1,1 C 86 % 1035,0 hPa 0,0 l/m 0 min 0 min 0 W/m 4,2 km/h (1 Bft)
29.12.2014 16:56 1,9 C -1,7 C 86 % 1035,0 hPa 0,0 l/m 0 min 0 min 0 W/m 6,3 km/h (2 Bft)
29.12.2014 16:58 1,8 C -1,7 C 86 % 1035,0 hPa 0,0 l/m 0 min 0 min 0 W/m 8,4 km/h (2 Bft)
29.12.2014 17:00 1,8 C -1,7 C 86 % 1035,0 hPa 0,0 l/m 0 min 0 min 0 W/m 6,3 km/h (2 Bft)
29.12.2014 17:02 1,7 C -1,7 C 86 % 1035,1 hPa 0,0 l/m 0 min 0 min 0 W/m 8,4 km/h (2 Bft)
29.12.2014 17:04 1,7 C -1,7 C 86 % 1035,0 hPa 0,0 l/m 0 min 0 min 0 W/m 6,3 km/h (2 Bft)
29.12.2014 17:06 1,6 C -1,7 C 86 % 1035,0 hPa 0,2 l/m 0 min 0 min 0 W/m 6,3 km/h (2 Bft)
29.12.2014 17:08 1,5 C -2,2 C 86 % 1035,1 hPa 0,0 l/m 0 min 0 min 0 W/m 6,3 km/h (2 Bft)
29.12.2014 17:10 1,4 C -2,2 C 86 % 1035,1 hPa 0,0 l/m 0 min 0 min 0 W/m 4,2 km/h (1 Bft)
29.12.2014 17:12 1,4 C -2,2 C 86 % 1035,2 hPa 0,0 l/m 0 min 0 min 0 W/m 6,3 km/h (2 Bft)
29.12.2014 17:14 1,3 C -2,2 C 86 % 1035,3 hPa 0,0 l/m 0 min 0 min 0 W/m 6,3 km/h (2 Bft)
29.12.2014 17:16 1,3 C -2,2 C 86 % 1035,2 hPa 0,0 l/m 0 min 0 min 0 W/m 4,2 km/h (1 Bft)
29.12.2014 17:18 1,2 C -2,2 C 86 % 1035,3 hPa 0,0 l/m 0 min 0 min 0 W/m 4,2 km/h (1 Bft)
29.12.2014 17:20 1,2 C -2,2 C 86 % 1035,3 hPa 0,0 l/m 0 min 0 min 0 W/m 4,2 km/h (1 Bft)
29.12.2014 17:22 1,1 C -2,2 C 86 % 1035,4 hPa 0,0 l/m 0 min 0 min 0 W/m 6,3 km/h (2 Bft)
29.12.2014 17:24 1,0 C -2,2 C 86 % 1035,4 hPa 0,0 l/m 0 min 0 min 0 W/m 4,2 km/h (1 Bft)
29.12.2014 17:26 0,9 C -2,8 C 86 % 1035,4 hPa 0,0 l/m 0 min 0 min 0 W/m 2,1 km/h (1 Bft)
29.12.2014 17:28 0,9 C -2,8 C 86 % 1035,5 hPa 0,0 l/m 0 min 0 min 0 W/m 2,1 km/h (1 Bft)
29.12.2014 17:30 0,8 C -2,8 C 86 % 1035,5 hPa 0,0 l/m 0 min 0 min 0 W/m 4,2 km/h (1 Bft)
29.12.2014 17:32 0,8 C -2,8 C 86 % 1035,4 hPa 0,0 l/m 0 min 0 min 0 W/m 4,2 km/h (1 Bft)
29.12.2014 17:34 0,7 C -2,8 C 86 % 1035,5 hPa 0,0 l/m 0 min 0 min 0 W/m 2,1 km/h (1 Bft)
29.12.2014 17:36 0,6 C -2,8 C 86 % 1035,5 hPa 0,0 l/m 0 min 0 min 0 W/m 2,1 km/h (1 Bft)
29.12.2014 17:38 0,6 C -2,8 C 86 % 1035,5 hPa 0,0 l/m 0 min 0 min 0 W/m 4,2 km/h (1 Bft)
29.12.2014 17:40 0,5 C -2,8 C 86 % 1035,5 hPa 0,0 l/m 0 min 0 min 0 W/m 4,2 km/h (1 Bft)
29.12.2014 17:42 0,5 C -2,8 C 86 % 1035,6 hPa 0,0 l/m 0 min 0 min 0 W/m 4,2 km/h (1 Bft)
29.12.2014 17:44 0,4 C -2,8 C 86 % 1035,6 hPa 0,0 l/m 0 min 0 min 0 W/m 4,2 km/h (1 Bft)
29.12.2014 17:46 0,3 C -2,8 C 86 % 1035,6 hPa 0,0 l/m 0 min 0 min 0 W/m 4,2 km/h (1 Bft)
29.12.2014 17:48 0,3 C -2,8 C 86 % 1035,6 hPa 0,0 l/m 0 min 0 min 0 W/m 4,2 km/h (1 Bft)
29.12.2014 17:50 0,2 C -2,8 C 86 % 1035,6 hPa 0,0 l/m 0 min 0 min 0 W/m 2,1 km/h (1 Bft)
29.12.2014 17:52 0,1 C -2,8 C 86 % 1035,6 hPa 0,0 l/m 0 min 0 min 0 W/m 2,1 km/h (1 Bft)
29.12.2014 17:54 0,1 C -2,8 C 86 % 1035,6 hPa 0,0 l/m 0 min 0 min 0 W/m 2,1 km/h (1 Bft)
29.12.2014 17:56 0,0 C -2,8 C 86 % 1035,7 hPa 0,0 l/m 0 min 0 min 0 W/m 4,2 km/h (1 Bft)
29.12.2014 17:58 -0,1 C -2,8 C 86 % 1035,7 hPa 0,0 l/m 0 min 0 min 0 W/m 4,2 km/h (1 Bft)
29.12.2014 18:00 -0,1 C -2,8 C 86 % 1035,7 hPa 0,0 l/m 0 min 0 min 0 W/m 4,2 km/h (1 Bft)
29.12.2014 18:02 -0,1 C -2,8 C 86 % 1035,7 hPa 0,0 l/m 0 min 0 min 0 W/m 2,1 km/h (1 Bft)
29.12.2014 18:05 -0,2 C -2,8 C 86 % 1035,7 hPa 0,0 l/m 0 min 0 min 0 W/m 4,2 km/h (1 Bft)
29.12.2014 18:08 -0,3 C -2,8 C 87 % 1035,7 hPa 0,0 l/m 0 min 0 min 0 W/m 4,2 km/h (1 Bft)
29.12.2014 18:10 -0,3 C -2,8 C 87 % 1035,7 hPa 0,0 l/m 0 min 0 min 0 W/m 2,1 km/h (1 Bft)
29.12.2014 18:12 -0,4 C -2,8 C 86 % 1035,7 hPa 0,0 l/m 0 min 0 min 0 W/m 4,2 km/h (1 Bft)
29.12.2014 18:14 -0,4 C -2,8 C 87 % 1035,7 hPa 0,0 l/m 0 min 0 min 0 W/m 2,1 km/h (1 Bft)
29.12.2014 18:16 -0,5 C -2,8 C 87 % 1035,8 hPa 0,0 l/m 0 min 0 min 0 W/m 2,1 km/h (1 Bft)
29.12.2014 18:18 -0,5 C -2,8 C 87 % 1035,8 hPa 0,0 l/m 0 min 0 min 0 W/m 4,2 km/h (1 Bft)
29.12.2014 18:20 -0,6 C -3,3 C 87 % 1035,9 hPa 0,0 l/m 0 min 0 min 0 W/m 4,2 km/h (1 Bft)
29.12.2014 18:22 -0,6 C -3,3 C 87 % 1035,9 hPa 0,0 l/m 0 min 0 min 0 W/m 2,1 km/h (1 Bft)
29.12.2014 18:24 -0,6 C -3,3 C 87 % 1035,9 hPa 0,0 l/m 0 min 0 min 0 W/m 4,2 km/h (1 Bft)
29.12.2014 18:26 -0,7 C -3,3 C 87 % 1036,1 hPa 0,0 l/m 0 min 0 min 0 W/m 2,1 km/h (1 Bft)
29.12.2014 18:28 -0,7 C -3,3 C 87 % 1036,1 hPa 0,0 l/m 0 min 0 min 0 W/m 2,1 km/h (1 Bft)
29.12.2014 18:30 -0,7 C -2,8 C 87 % 1036,0 hPa 0,0 l/m 0 min 0 min 0 W/m 2,1 km/h (1 Bft)
29.12.2014 18:32 -0,8 C -2,8 C 87 % 1036,1 hPa 0,0 l/m 0 min 0 min 0 W/m 2,1 km/h (1 Bft)
29.12.2014 18:34 -0,8 C -2,8 C 87 % 1036,1 hPa 0,0 l/m 0 min 0 min 0 W/m 2,1 km/h (1 Bft)
29.12.2014 18:36 -0,8 C -2,8 C 87 % 1036,1 hPa 0,0 l/m 0 min 0 min 0 W/m 4,2 km/h (1 Bft)
29.12.2014 18:38 -0,8 C -2,8 C 87 % 1036,2 hPa 0,0 l/m 0 min 0 min 0 W/m 2,1 km/h (1 Bft)
29.12.2014 18:40 -0,9 C -2,8 C 87 % 1036,2 hPa 0,0 l/m 0 min 0 min 0 W/m 2,1 km/h (1 Bft)
29.12.2014 18:42 -0,9 C -2,8 C 87 % 1036,2 hPa 0,0 l/m 0 min 0 min 0 W/m 4,2 km/h (1 Bft)
29.12.2014 18:44 -0,9 C -2,8 C 87 % 1036,2 hPa 0,0 l/m 0 min 0 min 0 W/m 2,1 km/h (1 Bft)
29.12.2014 18:46 -0,9 C -2,8 C 88 % 1036,2 hPa 0,0 l/m 0 min 0 min 0 W/m 2,1 km/h (1 Bft)
29.12.2014 18:48 -1,0 C -2,8 C 88 % 1036,3 hPa 0,0 l/m 0 min 0 min 0 W/m 2,1 km/h (1 Bft)
29.12.2014 18:50 -1,0 C -2,8 C 88 % 1036,3 hPa 0,0 l/m 0 min 0 min 0 W/m 2,1 km/h (1 Bft)
29.12.2014 18:52 -1,1 C -2,2 C 88 % 1036,3 hPa 0,0 l/m 0 min 0 min 0 W/m 2,1 km/h (1 Bft)
29.12.2014 18:54 -1,1 C -2,2 C 88 % 1036,3 hPa 0,0 l/m 0 min 0 min 0 W/m 4,2 km/h (1 Bft)
29.12.2014 18:56 -1,1 C -2,2 C 88 % 1036,3 hPa 0,0 l/m 0 min 0 min 0 W/m 2,1 km/h (1 Bft)
29.12.2014 18:58 -1,1 C -2,2 C 88 % 1036,3 hPa 0,0 l/m 0 min 0 min 0 W/m 2,1 km/h (1 Bft)
29.12.2014 19:00 -1,1 C -2,2 C 88 % 1036,3 hPa 0,0 l/m 0 min 0 min 0 W/m 2,1 km/h (1 Bft)
29.12.2014 19:02 -1,1 C -2,2 C 88 % 1036,3 hPa 0,0 l/m 0 min 0 min 0 W/m 2,1 km/h (1 Bft)
29.12.2014 19:04 -1,1 C -2,2 C 89 % 1036,4 hPa 0,0 l/m 0 min 0 min 0 W/m 2,1 km/h (1 Bft)
29.12.2014 19:06 -1,1 C -2,2 C 89 % 1036,3 hPa 0,0 l/m 0 min 0 min 0 W/m 2,1 km/h (1 Bft)
29.12.2014 19:08 -1,1 C -2,2 C 89 % 1036,4 hPa 0,0 l/m 0 min 0 min 0 W/m 2,1 km/h (1 Bft)
29.12.2014 19:10 -1,1 C -2,2 C 89 % 1036,5 hPa 0,0 l/m 0 min 0 min 0 W/m 2,1 km/h (1 Bft)
29.12.2014 19:12 -1,1 C -2,2 C 89 % 1036,5 hPa 0,0 l/m 0 min 0 min 0 W/m 2,1 km/h (1 Bft)
29.12.2014 19:14 -1,1 C -2,2 C 89 % 1036,5 hPa 0,0 l/m 0 min 0 min 0 W/m 2,1 km/h (1 Bft)
29.12.2014 19:16 -1,1 C -2,2 C 89 % 1036,5 hPa 0,0 l/m 0 min 0 min 0 W/m 2,1 km/h (1 Bft)
29.12.2014 19:18 -1,1 C -2,2 C 89 % 1036,4 hPa 0,0 l/m 0 min 0 min 0 W/m 2,1 km/h (1 Bft)
29.12.2014 19:20 -1,1 C -2,2 C 89 % 1036,4 hPa 0,0 l/m 0 min 0 min 0 W/m 2,1 km/h (1 Bft)
29.12.2014 19:22 -1,1 C -2,2 C 90 % 1036,5 hPa 0,0 l/m 0 min 0 min 0 W/m 2,1 km/h (1 Bft)
29.12.2014 19:24 -1,1 C -2,2 C 90 % 1036,5 hPa 0,0 l/m 0 min 0 min 0 W/m 2,1 km/h (1 Bft)
29.12.2014 19:26 -1,1 C -2,2 C 90 % 1036,6 hPa 0,0 l/m 0 min 0 min 0 W/m 0,0 km/h (0 Bft)
29.12.2014 19:28 -1,1 C -2,2 C 90 % 1036,6 hPa 0,0 l/m 0 min 0 min 0 W/m 0,0 km/h (0 Bft)
29.12.2014 19:30 -1,1 C -2,2 C 90 % 1036,7 hPa 0,0 l/m 0 min 0 min 0 W/m 0,0 km/h (0 Bft)
29.12.2014 19:32 -1,1 C -2,8 C 90 % 1036,7 hPa 0,0 l/m 0 min 0 min 0 W/m 0,0 km/h (0 Bft)
29.12.2014 19:34 -1,1 C -2,8 C 90 % 1036,7 hPa 0,0 l/m 0 min 0 min 0 W/m 2,1 km/h (1 Bft)
29.12.2014 19:36 -1,1 C -2,8 C 90 % 1036,8 hPa 0,0 l/m 0 min 0 min 0 W/m 2,1 km/h (1 Bft)
29.12.2014 19:38 -1,1 C -2,8 C 90 % 1036,7 hPa 0,0 l/m 0 min 0 min 0 W/m 2,1 km/h (1 Bft)
29.12.2014 19:40 -1,1 C -2,8 C 90 % 1036,8 hPa 0,0 l/m 0 min 0 min 0 W/m 2,1 km/h (1 Bft)
29.12.2014 19:42 -1,1 C -2,8 C 90 % 1036,8 hPa 0,0 l/m 0 min 0 min 0 W/m 2,1 km/h (1 Bft)
29.12.2014 19:44 -1,1 C -2,8 C 90 % 1036,8 hPa 0,0 l/m 0 min 0 min 0 W/m 2,1 km/h (1 Bft)
29.12.2014 19:46 -1,1 C -2,8 C 90 % 1036,8 hPa 0,0 l/m 0 min 0 min 0 W/m 2,1 km/h (1 Bft)
29.12.2014 19:48 -1,1 C -2,8 C 90 % 1036,9 hPa 0,0 l/m 0 min 0 min 0 W/m 2,1 km/h (1 Bft)
29.12.2014 19:50 -1,1 C -2,8 C 90 % 1036,8 hPa 0,0 l/m 0 min 0 min 0 W/m 2,1 km/h (1 Bft)
29.12.2014 19:52 -1,1 C -2,8 C 90 % 1036,8 hPa 0,0 l/m 0 min 0 min 0 W/m 2,1 km/h (1 Bft)
29.12.2014 19:54 -1,1 C -2,8 C 90 % 1036,8 hPa 0,0 l/m 0 min 0 min 0 W/m 2,1 km/h (1 Bft)
29.12.2014 19:56 -1,1 C -3,3 C 90 % 1036,8 hPa 0,0 l/m 0 min 0 min 0 W/m 2,1 km/h (1 Bft)
29.12.2014 19:58 -1,2 C -3,3 C 90 % 1036,8 hPa 0,0 l/m 0 min 0 min 0 W/m 2,1 km/h (1 Bft)
29.12.2014 20:00 -1,2 C -3,3 C 90 % 1036,8 hPa 0,0 l/m 0 min 0 min 0 W/m 2,1 km/h (1 Bft)
29.12.2014 20:02 -1,2 C -3,3 C 91 % 1036,8 hPa 0,0 l/m 0 min 0 min 0 W/m 2,1 km/h (1 Bft)
29.12.2014 20:04 -1,2 C -3,3 C 91 % 1036,8 hPa 0,0 l/m 0 min 0 min 0 W/m 4,2 km/h (1 Bft)
29.12.2014 20:06 -1,2 C -3,3 C 91 % 1036,9 hPa 0,0 l/m 0 min 0 min 0 W/m 4,2 km/h (1 Bft)
29.12.2014 20:08 -1,3 C -3,3 C 91 % 1036,8 hPa 0,0 l/m 0 min 0 min 0 W/m 4,2 km/h (1 Bft)
29.12.2014 20:10 -1,3 C -3,3 C 91 % 1036,8 hPa 0,0 l/m 0 min 0 min 0 W/m 4,2 km/h (1 Bft)
29.12.2014 20:12 -1,3 C -3,3 C 91 % 1036,8 hPa 0,0 l/m 0 min 0 min 0 W/m 4,2 km/h (1 Bft)
29.12.2014 20:14 -1,3 C -3,3 C 90 % 1036,8 hPa 0,0 l/m 0 min 0 min 0 W/m 2,1 km/h (1 Bft)
29.12.2014 20:16 -1,3 C -2,8 C 90 % 1036,8 hPa 0,0 l/m 0 min 0 min 0 W/m 2,1 km/h (1 Bft)
29.12.2014 20:18 -1,4 C -2,8 C 90 % 1036,8 hPa 0,0 l/m 0 min 0 min 0 W/m 2,1 km/h (1 Bft)
29.12.2014 20:20 -1,4 C -2,8 C 90 % 1036,8 hPa 0,0 l/m 0 min 0 min 0 W/m 2,1 km/h (1 Bft)
29.12.2014 20:22 -1,4 C -2,8 C 90 % 1036,8 hPa 0,0 l/m 0 min 0 min 0 W/m 4,2 km/h (1 Bft)
29.12.2014 20:24 -1,4 C -2,8 C 91 % 1036,8 hPa 0,0 l/m 0 min 0 min 0 W/m 2,1 km/h (1 Bft)
29.12.2014 20:26 -1,4 C -2,8 C 91 % 1036,9 hPa 0,0 l/m 0 min 0 min 0 W/m 0,0 km/h (0 Bft)
29.12.2014 20:28 -1,4 C -2,8 C 91 % 1036,8 hPa 0,0 l/m 0 min 0 min 0 W/m 0,0 km/h (0 Bft)
29.12.2014 20:30 -1,4 C -2,8 C 91 % 1036,8 hPa 0,0 l/m 0 min 0 min 0 W/m 0,0 km/h (0 Bft)
29.12.2014 20:32 -1,5 C -2,8 C 91 % 1036,8 hPa 0,0 l/m 0 min 0 min 0 W/m 0,0 km/h (0 Bft)
29.12.2014 20:34 -1,5 C -2,8 C 91 % 1036,7 hPa 0,0 l/m 0 min 0 min 0 W/m 2,1 km/h (1 Bft)
29.12.2014 20:36 -1,5 C -2,8 C 91 % 1036,7 hPa 0,0 l/m 0 min 0 min 0 W/m 4,2 km/h (1 Bft)
29.12.2014 20:38 -1,5 C -2,8 C 91 % 1036,7 hPa 0,0 l/m 0 min 0 min 0 W/m 4,2 km/h (1 Bft)
29.12.2014 20:40 -1,5 C -2,8 C 91 % 1036,8 hPa 0,0 l/m 0 min 0 min 0 W/m 4,2 km/h (1 Bft)
29.12.2014 20:42 -1,6 C -2,2 C 91 % 1036,9 hPa 0,0 l/m 0 min 0 min 0 W/m 4,2 km/h (1 Bft)
29.12.2014 20:44 -1,5 C -2,2 C 91 % 1036,9 hPa 0,0 l/m 0 min 0 min 0 W/m 4,2 km/h (1 Bft)
29.12.2014 20:46 -1,6 C -2,2 C 91 % 1036,9 hPa 0,0 l/m 0 min 0 min 0 W/m 4,2 km/h (1 Bft)
29.12.2014 20:48 -1,6 C -2,2 C 91 % 1036,9 hPa 0,0 l/m 0 min 0 min 0 W/m 4,2 km/h (1 Bft)
29.12.2014 20:50 -1,5 C -2,2 C 91 % 1036,9 hPa 0,0 l/m 0 min 0 min 0 W/m 4,2 km/h (1 Bft)
29.12.2014 20:52 -1,5 C -2,2 C 91 % 1036,9 hPa 0,0 l/m 0 min 0 min 0 W/m 4,2 km/h (1 Bft)
29.12.2014 20:54 -1,5 C -2,2 C 91 % 1036,8 hPa 0,0 l/m 0 min 0 min 0 W/m 4,2 km/h (1 Bft)
29.12.2014 20:56 -1,5 C -2,2 C 91 % 1036,9 hPa 0,0 l/m 0 min 0 min 0 W/m 4,2 km/h (1 Bft)
29.12.2014 20:58 -1,5 C -2,2 C 92 % 1036,9 hPa 0,0 l/m 0 min 0 min 0 W/m 4,2 km/h (1 Bft)
29.12.2014 21:00 -1,5 C -2,2 C 92 % 1036,9 hPa 0,0 l/m 0 min 0 min 0 W/m 4,2 km/h (1 Bft)
29.12.2014 21:02 -1,5 C -2,2 C 92 % 1036,9 hPa 0,0 l/m 0 min 0 min 0 W/m 4,2 km/h (1 Bft)
29.12.2014 21:04 -1,4 C -2,2 C 92 % 1036,8 hPa 0,0 l/m 0 min 0 min 0 W/m 4,2 km/h (1 Bft)
29.12.2014 21:06 -1,4 C -2,2 C 92 % 1036,8 hPa 0,0 l/m 0 min 0 min 0 W/m 4,2 km/h (1 Bft)
29.12.2014 21:08 -1,4 C -2,2 C 92 % 1036,8 hPa 0,0 l/m 0 min 0 min 0 W/m 4,2 km/h (1 Bft)
29.12.2014 21:10 -1,4 C -2,2 C 92 % 1036,8 hPa 0,0 l/m 0 min 0 min 0 W/m 6,3 km/h (2 Bft)
29.12.2014 21:12 -1,4 C -2,2 C 92 % 1036,9 hPa 0,0 l/m 0 min 0 min 0 W/m 4,2 km/h (1 Bft)
29.12.2014 21:14 -1,4 C -2,2 C 92 % 1037,0 hPa 0,0 l/m 0 min 0 min 0 W/m 4,2 km/h (1 Bft)
29.12.2014 21:16 -1,3 C -2,2 C 92 % 1037,1 hPa 0,0 l/m 0 min 0 min 0 W/m 4,2 km/h (1 Bft)
29.12.2014 21:18 -1,3 C -2,2 C 92 % 1037,0 hPa 0,0 l/m 0 min 0 min 0 W/m 6,3 km/h (2 Bft)
29.12.2014 21:20 -1,3 C -2,2 C 92 % 1037,0 hPa 0,0 l/m 0 min 0 min 0 W/m 6,3 km/h (2 Bft)
29.12.2014 21:22 -1,3 C -2,2 C 92 % 1037,0 hPa 0,0 l/m 0 min 0 min 0 W/m 6,3 km/h (2 Bft)
29.12.2014 21:24 -1,3 C -2,2 C 92 % 1037,0 hPa 0,0 l/m 0 min 0 min 0 W/m 4,2 km/h (1 Bft)
29.12.2014 21:26 -1,3 C -1,7 C 92 % 1036,9 hPa 0,0 l/m 0 min 0 min 0 W/m 2,1 km/h (1 Bft)
29.12.2014 21:28 -1,2 C -2,2 C 93 % 1037,0 hPa 0,0 l/m 0 min 0 min 0 W/m 4,2 km/h (1 Bft)
29.12.2014 21:30 -1,2 C -1,7 C 92 % 1037,0 hPa 0,0 l/m 0 min 0 min 0 W/m 4,2 km/h (1 Bft)
29.12.2014 21:32 -1,2 C -1,7 C 93 % 1036,9 hPa 0,0 l/m 0 min 0 min 0 W/m 6,3 km/h (2 Bft)
29.12.2014 21:34 -1,2 C -1,7 C 93 % 1036,9 hPa 0,0 l/m 0 min 0 min 0 W/m 6,3 km/h (2 Bft)
29.12.2014 21:36 -1,2 C -1,7 C 93 % 1036,9 hPa 0,0 l/m 0 min 0 min 0 W/m 6,3 km/h (2 Bft)
29.12.2014 21:38 -1,2 C -1,7 C 93 % 1036,9 hPa 0,0 l/m 0 min 0 min 0 W/m 6,3 km/h (2 Bft)
29.12.2014 21:40 -1,2 C -1,7 C 93 % 1036,9 hPa 0,0 l/m 0 min 0 min 0 W/m 6,3 km/h (2 Bft)
29.12.2014 21:42 -1,1 C -1,7 C 93 % 1036,9 hPa 0,0 l/m 0 min 0 min 0 W/m 4,2 km/h (1 Bft)
29.12.2014 21:44 -1,1 C -1,7 C 93 % 1037,0 hPa 0,0 l/m 0 min 0 min 0 W/m 6,3 km/h (2 Bft)
29.12.2014 21:46 -1,1 C -1,7 C 93 % 1037,1 hPa 0,0 l/m 0 min 0 min 0 W/m 6,3 km/h (2 Bft)
29.12.2014 21:48 -1,1 C -1,7 C 93 % 1037,1 hPa 0,0 l/m 0 min 0 min 0 W/m 8,4 km/h (2 Bft)
29.12.2014 21:50 -1,1 C -1,7 C 93 % 1037,2 hPa 0,0 l/m 0 min 0 min 0 W/m 8,4 km/h (2 Bft)
29.12.2014 21:52 -1,0 C -1,7 C 93 % 1037,3 hPa 0,0 l/m 0 min 0 min 0 W/m 6,3 km/h (2 Bft)
29.12.2014 21:54 -1,0 C -1,7 C 93 % 1037,4 hPa 0,0 l/m 0 min 0 min 0 W/m 8,4 km/h (2 Bft)
29.12.2014 21:56 -0,9 C -1,7 C 93 % 1037,4 hPa 0,0 l/m 0 min 0 min 0 W/m 6,3 km/h (2 Bft)
29.12.2014 21:58 -0,9 C -1,7 C 93 % 1037,4 hPa 0,0 l/m 0 min 0 min 0 W/m 6,3 km/h (2 Bft)
29.12.2014 22:00 -0,9 C -1,7 C 93 % 1037,4 hPa 0,0 l/m 0 min 0 min 0 W/m 6,3 km/h (2 Bft)
29.12.2014 22:02 -0,9 C -1,7 C 93 % 1037,4 hPa 0,0 l/m 0 min 0 min 0 W/m 6,3 km/h (2 Bft)
29.12.2014 22:04 -0,9 C -1,7 C 93 % 1037,5 hPa 0,0 l/m 0 min 0 min 0 W/m 6,3 km/h (2 Bft)
29.12.2014 22:06 -0,9 C -1,7 C 93 % 1037,4 hPa 0,0 l/m 0 min 0 min 0 W/m 4,2 km/h (1 Bft)
29.12.2014 22:08 -0,9 C -1,7 C 93 % 1037,4 hPa 0,0 l/m 0 min 0 min 0 W/m 4,2 km/h (1 Bft)
29.12.2014 22:10 -0,9 C -1,7 C 93 % 1037,4 hPa 0,0 l/m 0 min 0 min 0 W/m 4,2 km/h (1 Bft)
29.12.2014 22:12 -0,8 C -1,7 C 93 % 1037,4 hPa 0,0 l/m 0 min 0 min 0 W/m 4,2 km/h (1 Bft)
29.12.2014 22:14 -0,8 C -1,7 C 93 % 1037,3 hPa 0,0 l/m 0 min 0 min 0 W/m 4,2 km/h (1 Bft)
29.12.2014 22:16 -0,8 C -1,7 C 93 % 1037,4 hPa 0,0 l/m 0 min 0 min 0 W/m 4,2 km/h (1 Bft)
29.12.2014 22:18 -0,8 C -1,7 C 93 % 1037,3 hPa 0,0 l/m 0 min 0 min 0 W/m 4,2 km/h (1 Bft)
29.12.2014 22:20 -0,8 C -1,7 C 93 % 1037,3 hPa 0,0 l/m 0 min 0 min 0 W/m 4,2 km/h (1 Bft)
29.12.2014 22:22 -0,8 C -1,7 C 93 % 1037,2 hPa 0,0 l/m 0 min 0 min 0 W/m 6,3 km/h (2 Bft)
29.12.2014 22:24 -0,8 C -1,7 C 93 % 1037,1 hPa 0,0 l/m 0 min 0 min 0 W/m 6,3 km/h (2 Bft)
29.12.2014 22:26 -0,8 C -1,7 C 93 % 1037,1 hPa 0,0 l/m 0 min 0 min 0 W/m 6,3 km/h (2 Bft)
29.12.2014 22:28 -0,8 C -1,7 C 93 % 1037,1 hPa 0,0 l/m 0 min 0 min 0 W/m 4,2 km/h (1 Bft)
29.12.2014 22:30 -0,7 C -1,7 C 93 % 1037,2 hPa 0,0 l/m 0 min 0 min 0 W/m 6,3 km/h (2 Bft)
29.12.2014 22:32 -0,7 C -1,7 C 93 % 1037,1 hPa 0,0 l/m 0 min 0 min 0 W/m 6,3 km/h (2 Bft)
29.12.2014 22:34 -0,7 C -1,7 C 93 % 1037,0 hPa 0,0 l/m 0 min 0 min 0 W/m 6,3 km/h (2 Bft)
29.12.2014 22:36 -0,7 C -1,1 C 93 % 1037,1 hPa 0,0 l/m 0 min 0 min 0 W/m 6,3 km/h (2 Bft)
29.12.2014 22:38 -0,7 C -1,1 C 94 % 1037,2 hPa 0,0 l/m 0 min 0 min 0 W/m 6,3 km/h (2 Bft)
29.12.2014 22:40 -0,7 C -1,7 C 93 % 1037,1 hPa 0,0 l/m 0 min 0 min 0 W/m 6,3 km/h (2 Bft)
29.12.2014 22:42 -0,7 C -1,7 C 94 % 1037,1 hPa 0,0 l/m 0 min 0 min 0 W/m 6,3 km/h (2 Bft)
29.12.2014 22:44 -0,7 C -1,1 C 94 % 1037,2 hPa 0,0 l/m 0 min 0 min 0 W/m 4,2 km/h (1 Bft)
29.12.2014 22:46 -0,7 C -1,1 C 94 % 1037,2 hPa 0,0 l/m 0 min 0 min 0 W/m 4,2 km/h (1 Bft)
29.12.2014 22:48 -0,6 C -1,1 C 94 % 1037,3 hPa 0,0 l/m 0 min 0 min 0 W/m 6,3 km/h (2 Bft)
29.12.2014 22:50 -0,6 C -1,1 C 94 % 1037,2 hPa 0,0 l/m 0 min 0 min 0 W/m 4,2 km/h (1 Bft)
29.12.2014 22:52 -0,6 C -1,7 C 94 % 1037,3 hPa 0,0 l/m 0 min 0 min 0 W/m 6,3 km/h (2 Bft)
29.12.2014 22:54 -0,6 C -1,7 C 94 % 1037,2 hPa 0,0 l/m 0 min 0 min 0 W/m 6,3 km/h (2 Bft)
29.12.2014 22:56 -0,6 C -1,1 C 94 % 1037,1 hPa 0,0 l/m 0 min 0 min 0 W/m 6,3 km/h (2 Bft)
29.12.2014 22:58 -0,6 C -1,7 C 94 % 1037,2 hPa 0,0 l/m 0 min 0 min 0 W/m 6,3 km/h (2 Bft)
29.12.2014 23:00 -0,6 C -1,7 C 94 % 1037,1 hPa 0,0 l/m 0 min 0 min 0 W/m 4,2 km/h (1 Bft)
29.12.2014 23:02 -0,6 C -1,1 C 94 % 1037,1 hPa 0,0 l/m 0 min 0 min 0 W/m 6,3 km/h (2 Bft)
29.12.2014 23:04 -0,6 C -1,7 C 94 % 1037,1 hPa 0,0 l/m 0 min 0 min 0 W/m 4,2 km/h (1 Bft)
29.12.2014 23:06 -0,6 C -1,1 C 94 % 1037,1 hPa 0,0 l/m 0 min 0 min 0 W/m 6,3 km/h (2 Bft)
29.12.2014 23:08 -0,6 C -1,7 C 94 % 1037,1 hPa 0,0 l/m 0 min 0 min 0 W/m 6,3 km/h (2 Bft)
29.12.2014 23:10 -0,6 C -1,1 C 94 % 1037,1 hPa 0,0 l/m 0 min 0 min 0 W/m 8,4 km/h (2 Bft)
29.12.2014 23:12 -0,5 C -1,1 C 94 % 1037,1 hPa 0,0 l/m 0 min 0 min 0 W/m 6,3 km/h (2 Bft)
29.12.2014 23:14 -0,5 C -1,1 C 94 % 1037,0 hPa 0,0 l/m 0 min 0 min 0 W/m 8,4 km/h (2 Bft)
29.12.2014 23:16 -0,5 C -1,1 C 94 % 1037,1 hPa 0,0 l/m 0 min 0 min 0 W/m 8,4 km/h (2 Bft)
29.12.2014 23:18 -0,5 C -1,1 C 94 % 1037,1 hPa 0,0 l/m 0 min 0 min 0 W/m 6,3 km/h (2 Bft)
29.12.2014 23:20 -0,5 C -1,1 C 94 % 1037,1 hPa 0,0 l/m 0 min 0 min 0 W/m 6,3 km/h (2 Bft)
29.12.2014 23:22 -0,5 C -1,1 C 94 % 1037,1 hPa 0,0 l/m 0 min 0 min 0 W/m 6,3 km/h (2 Bft)
29.12.2014 23:24 -0,5 C -1,1 C 94 % 1037,0 hPa 0,0 l/m 0 min 0 min 0 W/m 6,3 km/h (2 Bft)
29.12.2014 23:26 -0,4 C -1,1 C 94 % 1037,0 hPa 0,0 l/m 0 min 0 min 0 W/m 8,4 km/h (2 Bft)
29.12.2014 23:28 -0,4 C -1,1 C 94 % 1037,0 hPa 0,0 l/m 0 min 0 min 0 W/m 6,3 km/h (2 Bft)
29.12.2014 23:30 -0,4 C -1,1 C 94 % 1036,9 hPa 0,0 l/m 0 min 0 min 0 W/m 6,3 km/h (2 Bft)
29.12.2014 23:32 -0,4 C -1,1 C 94 % 1036,8 hPa 0,0 l/m 0 min 0 min 0 W/m 6,3 km/h (2 Bft)
29.12.2014 23:34 -0,4 C -1,1 C 94 % 1036,9 hPa 0,0 l/m 0 min 0 min 0 W/m 4,2 km/h (1 Bft)
29.12.2014 23:36 -0,4 C -1,1 C 94 % 1036,8 hPa 0,0 l/m 0 min 0 min 0 W/m 4,2 km/h (1 Bft)
29.12.2014 23:38 -0,4 C -1,1 C 94 % 1036,9 hPa 0,0 l/m 0 min 0 min 0 W/m 6,3 km/h (2 Bft)
29.12.2014 23:40 -0,4 C -1,1 C 94 % 1036,9 hPa 0,0 l/m 0 min 0 min 0 W/m 6,3 km/h (2 Bft)
29.12.2014 23:42 -0,4 C -1,1 C 94 % 1036,9 hPa 0,0 l/m 0 min 0 min 0 W/m 6,3 km/h (2 Bft)
29.12.2014 23:44 -0,4 C -1,1 C 94 % 1036,8 hPa 0,0 l/m 0 min 0 min 0 W/m 8,4 km/h (2 Bft)
29.12.2014 23:46 -0,4 C -1,1 C 94 % 1036,8 hPa 0,0 l/m 0 min 0 min 0 W/m 4,2 km/h (1 Bft)
29.12.2014 23:48 -0,4 C -1,1 C 94 % 1036,8 hPa 0,0 l/m 0 min 0 min 0 W/m 4,2 km/h (1 Bft)
29.12.2014 23:50 -0,4 C -1,1 C 94 % 1036,8 hPa 0,0 l/m 0 min 0 min 0 W/m 4,2 km/h (1 Bft)
29.12.2014 23:52 -0,3 C -1,1 C 94 % 1036,7 hPa 0,0 l/m 0 min 0 min 0 W/m 4,2 km/h (1 Bft)
29.12.2014 23:54 -0,3 C -1,1 C 94 % 1036,8 hPa 0,0 l/m 0 min 0 min 0 W/m 6,3 km/h (2 Bft)
29.12.2014 23:56 -0,3 C -1,1 C 94 % 1036,8 hPa 0,0 l/m 0 min 0 min 0 W/m 10,5 km/h (2 Bft)
29.12.2014 23:58 -0,3 C -1,1 C 94 % 1036,8 hPa 0,0 l/m 0 min 0 min 0 W/m 6,3 km/h (2 Bft)
_ Min-Zeit 00:00 00:00 14:58 06:08 - - - - 19:26
Minimum _ -3,2 C -3,3 C 86 % 1029,6 hPa - - - - 0,0 km/h (0 Bft)
_ Max-Zeit 13:02 13:02 09:18 22:04 11:28 09:46 02:32 13:02 03:36
Maximum _ 3,8 C 2,8 C 97 % 1037,5 hPa 0,2 l/m 2 min 2 min 333 W/m 39,7 km/h
W-SW (6 Bft)
Durchschnitt _ 0,2 C -1,1 C 92 % 1033,1 hPa #5,4 l/m #3:22 h #6:30 h 96 W/m 15,7 km/h (3 Bft)
© 2015 W. Hausmann